Observation data for Tarzan on 04/06/2020      Previous  Date  Next       Current Mesonet Observations  Soil Data  Daily Summary Page  Observations in Plain Language
KTA1 060500Z 17015KT 16/14 A2997 RMK A01 T01610143  RH  089%=      5-min Rain = 0
KTA1 060501Z 17016KT 16/14 A2997 RMK A01 T01610143  RH  089%=      5-min Rain = 0
KTA1 060502Z 17013KT 16/14 A2997 RMK A01 T01610143  RH  089%=      5-min Rain = 0
KTA1 060503Z 16016KT 16/14 A2997 RMK A01 T01610144  RH  089%=      5-min Rain = 0
KTA1 060504Z 16016KT 16/14 A2997 RMK A01 T01610143  RH  089%=      5-min Rain = 0
KTA1 060505Z 16018KT 16/14 A2997 RMK A01 T01610144  RH  089%=      5-min Rain = 0
KTA1 060506Z 16016KT 16/14 A2997 RMK A01 T01610144  RH  089%=      5-min Rain = 0
KTA1 060507Z 16019KT 16/14 A2997 RMK A01 T01610143  RH  089%=      5-min Rain = 0
KTA1 060508Z 17017KT 16/14 A2997 RMK A01 T01620144  RH  089%=      5-min Rain = 0
KTA1 060509Z 16017KT 16/14 A2997 RMK A01 T01620144  RH  089%=      5-min Rain = 0
KTA1 060510Z 17017KT 16/14 A2997 RMK A01 T01620143  RH  089%=      5-min Rain = 0
KTA1 060511Z 17018KT 16/14 A2997 RMK A01 T01620143  RH  089%=      5-min Rain = 0
KTA1 060512Z 16017G23KT 16/14 A2997 RMK A01 T01620143  RH  089%=      5-min Rain = 0
KTA1 060513Z 17015KT 16/14 A2997 RMK A01 T01620143  RH  089%=      5-min Rain = 0
KTA1 060514Z 17016KT 16/14 A2997 RMK A01 T01620144  RH  089%=      5-min Rain = 0
KTA1 060515Z 17018KT 16/14 A2996 RMK A01 T01620143  RH  089%=      5-min Rain = 0
KTA1 060516Z 16017G22KT 16/14 A2997 RMK A01 T01620143  RH  089%=      5-min Rain = 0
KTA1 060517Z 17017KT 16/14 A2997 RMK A01 T01620143  RH  089%=      5-min Rain = 0
KTA1 060518Z 17013KT 16/14 A2997 RMK A01 T01620143  RH  089%=      5-min Rain = 0
KTA1 060519Z 16013G18KT 16/14 A2997 RMK A01 T01620144  RH  089%=      5-min Rain = 0
KTA1 060520Z 17017G22KT 16/14 A2997 RMK A01 T01620144  RH  089%=      5-min Rain = 0
KTA1 060521Z 17018KT 16/14 A2997 RMK A01 T01620144  RH  089%=      5-min Rain = 0
KTA1 060522Z 17019KT 16/14 A2997 RMK A01 T01620144  RH  089%=      5-min Rain = 0
KTA1 060523Z 17015KT 16/14 A2997 RMK A01 T01620144  RH  089%=      5-min Rain = 0
KTA1 060524Z 17016KT 16/14 A2997 RMK A01 T01620144  RH  089%=      5-min Rain = 0
KTA1 060525Z 17014G19KT 16/14 A2997 RMK A01 T01620144  RH  089%=      5-min Rain = 0
KTA1 060526Z 17013KT 16/14 A2997 RMK A01 T01620144  RH  089%=      5-min Rain = 0
KTA1 060527Z 16014G20KT 16/14 A2997 RMK A01 T01620144  RH  089%=      5-min Rain = 0
KTA1 060528Z 17015KT 16/14 A2997 RMK A01 T01620144  RH  089%=      5-min Rain = 0
KTA1 060529Z 17015KT 16/15 A2997 RMK A01 T01620145  RH  089%=      5-min Rain = 0
KTA1 060530Z 17016KT 16/14 A2997 RMK A01 T01620144  RH  089%=      5-min Rain = 0
KTA1 060531Z 17013KT 16/14 A2997 RMK A01 T01620144  RH  089%=      5-min Rain = 0
KTA1 060532Z 17010KT 16/15 A2997 RMK A01 T01620145  RH  089%=      5-min Rain = 0
KTA1 060533Z 17013KT 16/15 A2997 RMK A01 T01620145  RH  089%=      5-min Rain = 0
KTA1 060534Z 17015KT 16/15 A2997 RMK A01 T01620145  RH  089%=      5-min Rain = 0
KTA1 060535Z 17015KT 16/14 A2997 RMK A01 T01620144  RH  089%=      5-min Rain = 0
KTA1 060536Z 17013G19KT 16/14 A2997 RMK A01 T01620144  RH  089%=      5-min Rain = 0
KTA1 060537Z 17014KT 16/15 A2997 RMK A01 T01620145  RH  089%=      5-min Rain = 0
KTA1 060538Z 17014KT 16/14 A2997 RMK A01 T01620144  RH  089%=      5-min Rain = 0
KTA1 060539Z 16017G22KT 16/15 A2997 RMK A01 T01620145  RH  089%=      5-min Rain = 0
KTA1 060540Z 17016KT 16/14 A2997 RMK A01 T01620144  RH  089%=      5-min Rain = 0
KTA1 060541Z 17015KT 16/14 A2997 RMK A01 T01620144  RH  089%=      5-min Rain = 0
KTA1 060542Z 17015KT 16/14 A2997 RMK A01 T01620144  RH  089%=      5-min Rain = 0
KTA1 060543Z 17012KT 16/14 A2997 RMK A01 T01620144  RH  089%=      5-min Rain = 0
KTA1 060544Z 17015G20KT 16/14 A2997 RMK A01 T01620144  RH  089%=      5-min Rain = 0
KTA1 060545Z 17018KT 16/14 A2997 RMK A01 T01620144  RH  089%=      5-min Rain = 0
KTA1 060546Z 17017KT 16/14 A2997 RMK A01 T01620144  RH  089%=      5-min Rain = 0
KTA1 060547Z 17016KT 16/14 A2997 RMK A01 T01620144  RH  089%=      5-min Rain = 0
KTA1 060548Z 16019KT 16/14 A2997 RMK A01 T01620144  RH  089%=      5-min Rain = 0
KTA1 060549Z 16018KT 16/14 A2997 RMK A01 T01610144  RH  089%=      5-min Rain = 0
KTA1 060550Z 16016KT 16/14 A2997 RMK A01 T01610144  RH  089%=      5-min Rain = 0
KTA1 060551Z 16016KT 16/14 A2997 RMK A01 T01620144  RH  089%=      5-min Rain = 0
KTA1 060552Z 17017G23KT 16/14 A2997 RMK A01 T01610143  RH  089%=      5-min Rain = 0
KTA1 060553Z 17019G24KT 16/14 A2997 RMK A01 T01610143  RH  089%=      5-min Rain = 0
KTA1 060554Z 17018KT 16/14 A2997 RMK A01 T01610143  RH  089%=      5-min Rain = 0
KTA1 060555Z 17016KT 16/14 A2997 RMK A01 T01610143  RH  089%=      5-min Rain = 0
KTA1 060556Z 17018G24KT 16/14 A2997 RMK A01 T01610143  RH  089%=      5-min Rain = 0
KTA1 060557Z 17019KT 16/14 A2997 RMK A01 T01610143  RH  089%=      5-min Rain = 0
KTA1 060558Z 17019KT 16/14 A2997 RMK A01 T01610143  RH  089%=      5-min Rain = 0
KTA1 060559Z 17019G24KT 16/14 A2997 RMK A01 T01610143  RH  089%=      5-min Rain = 0
KTA1 060600Z 17017KT 16/14 A2997 RMK A01 T01620143  RH  089%=      5-min Rain = 0
KTA1 060601Z 17019G24KT 16/14 A2997 RMK A01 T01620143  RH  089%=      5-min Rain = 0
KTA1 060602Z 17016KT 16/14 A2997 RMK A01 T01620143  RH  089%=      5-min Rain = 0
KTA1 060603Z 17018KT 16/14 A2997 RMK A01 T01610143  RH  089%=      5-min Rain = 0
KTA1 060604Z 17018KT 16/14 A2997 RMK A01 T01610143  RH  089%=      5-min Rain = 0
KTA1 060605Z 17017KT 16/14 A2997 RMK A01 T01610143  RH  089%=      5-min Rain = 0
KTA1 060606Z 17015G23KT 16/14 A2997 RMK A01 T01610143  RH  089%=      5-min Rain = 0
KTA1 060607Z 17018KT 16/14 A2997 RMK A01 T01610143  RH  089%=      5-min Rain = 0
KTA1 060608Z 17016G21KT 16/14 A2997 RMK A01 T01610143  RH  089%=      5-min Rain = 0
KTA1 060609Z 17015KT 16/14 A2997 RMK A01 T01610143  RH  089%=      5-min Rain = 0
KTA1 060610Z 17015KT 16/14 A2997 RMK A01 T01610143  RH  089%=      5-min Rain = 0
KTA1 060611Z 17014KT 16/14 A2997 RMK A01 T01610143  RH  089%=      5-min Rain = 0
KTA1 060612Z 17016KT 16/14 A2997 RMK A01 T01610143  RH  089%=      5-min Rain = 0
KTA1 060613Z 17015KT 16/14 A2997 RMK A01 T01610143  RH  089%=      5-min Rain = 0
KTA1 060614Z 17015KT 16/14 A2997 RMK A01 T01610143  RH  089%=      5-min Rain = 0
KTA1 060615Z 16015KT 16/14 A2997 RMK A01 T01610143  RH  089%=      5-min Rain = 0
KTA1 060616Z 17016KT 16/14 A2997 RMK A01 T01620143  RH  089%=      5-min Rain = 0
KTA1 060617Z 17016KT 16/14 A2997 RMK A01 T01610143  RH  089%=      5-min Rain = 0
KTA1 060618Z 17017KT 16/14 A2997 RMK A01 T01610143  RH  089%=      5-min Rain = 0
KTA1 060619Z 17014KT 16/14 A2997 RMK A01 T01610143  RH  089%=      5-min Rain = 0
KTA1 060620Z 17014KT 16/14 A2997 RMK A01 T01610143  RH  089%=      5-min Rain = 0
KTA1 060621Z 17014KT 16/14 A2997 RMK A01 T01610143  RH  089%=      5-min Rain = 0
KTA1 060622Z 17013KT 16/14 A2997 RMK A01 T01610143  RH  089%=      5-min Rain = 0
KTA1 060623Z 17012KT 16/14 A2997 RMK A01 T01610143  RH  089%=      5-min Rain = 0
KTA1 060624Z 18013G19KT 16/14 A2997 RMK A01 T01610143  RH  089%=      5-min Rain = 0
KTA1 060625Z 18016KT 16/14 A2997 RMK A01 T01610143  RH  089%=      5-min Rain = 0
KTA1 060626Z 17015KT 16/14 A2997 RMK A01 T01610142  RH  089%=      5-min Rain = 0
KTA1 060627Z 17013KT 16/14 A2997 RMK A01 T01610143  RH  089%=      5-min Rain = 0
KTA1 060628Z 16014KT 16/14 A2997 RMK A01 T01610143  RH  089%=      5-min Rain = 0
KTA1 060629Z 17014KT 16/14 A2997 RMK A01 T01610143  RH  089%=      5-min Rain = 0
KTA1 060630Z 16013G19KT 16/14 A2997 RMK A01 T01600143  RH  089%=      5-min Rain = 0
KTA1 060631Z 16015KT 16/14 A2997 RMK A01 T01600143  RH  090%=      5-min Rain = 0
KTA1 060632Z 16012KT 16/14 A2997 RMK A01 T01590143  RH  090%=      5-min Rain = 0
KTA1 060633Z 16011KT 16/14 A2997 RMK A01 T01590143  RH  090%=      5-min Rain = 0
KTA1 060634Z 16012KT 16/14 A2997 RMK A01 T01580143  RH  091%=      5-min Rain = 0
KTA1 060635Z 16012KT 16/14 A2997 RMK A01 T01580143  RH  091%=      5-min Rain = 0
KTA1 060636Z 16010KT 16/14 A2997 RMK A01 T01580143  RH  091%=      5-min Rain = 0
KTA1 060637Z 16014G19KT 16/14 A2997 RMK A01 T01580143  RH  091%=      5-min Rain = 0
KTA1 060638Z 16013G18KT 16/14 A2997 RMK A01 T01570142  RH  091%=      5-min Rain = 0
KTA1 060639Z 16017KT 16/14 A2997 RMK A01 T01570142  RH  091%=      5-min Rain = 0
KTA1 060640Z 17018KT 16/14 A2997 RMK A01 T01560142  RH  091%=      5-min Rain = 0
KTA1 060641Z 16018KT 16/14 A2997 RMK A01 T01560142  RH  091%=      5-min Rain = 0
KTA1 060642Z 16015KT 16/14 A2997 RMK A01 T01560142  RH  091%=      5-min Rain = 0
KTA1 060643Z 16014KT 16/14 A2997 RMK A01 T01560142  RH  091%=      5-min Rain = 0
KTA1 060644Z 16016KT 16/14 A2997 RMK A01 T01560142  RH  091%=      5-min Rain = 0
KTA1 060645Z 17015KT 16/14 A2997 RMK A01 T01560142  RH  091%=      5-min Rain = 0
KTA1 060646Z 16015KT 16/14 A2997 RMK A01 T01550142  RH  092%=      5-min Rain = 0
KTA1 060647Z 16014KT 16/14 A2997 RMK A01 T01550141  RH  091%=      5-min Rain = 0
KTA1 060648Z 17013KT 16/14 A2997 RMK A01 T01550141  RH  091%=      5-min Rain = 0
KTA1 060649Z 16010KT 16/14 A2997 RMK A01 T01560142  RH  091%=      5-min Rain = 0
KTA1 060650Z 16011KT 16/14 A2997 RMK A01 T01560142  RH  092%=      5-min Rain = 0
KTA1 060651Z 16011KT 16/14 A2997 RMK A01 T01550141  RH  092%=      5-min Rain = 0
KTA1 060652Z 16016KT 16/14 A2997 RMK A01 T01550142  RH  092%=      5-min Rain = 0
KTA1 060653Z 16016KT 16/14 A2996 RMK A01 T01550141  RH  092%=      5-min Rain = 0
KTA1 060654Z 16017KT 16/14 A2997 RMK A01 T01550141  RH  092%=      5-min Rain = 0
KTA1 060655Z 16017KT 16/14 A2996 RMK A01 T01550141  RH  091%=      5-min Rain = 0
KTA1 060656Z 16014KT 16/14 A2996 RMK A01 T01550141  RH  092%=      5-min Rain = 0
KTA1 060657Z 16015KT 15/14 A2996 RMK A01 T01540141  RH  092%=      5-min Rain = 0
KTA1 060658Z 17015KT 16/14 A2997 RMK A01 T01550141  RH  092%=      5-min Rain = 0
KTA1 060659Z 17015KT 15/14 A2997 RMK A01 T01540141  RH  092%=      5-min Rain = 0
KTA1 060700Z 17016KT 15/14 A2997 RMK A01 T01540141  RH  092%=      5-min Rain = 0
KTA1 060701Z 17016KT 15/14 A2996 RMK A01 T01540141  RH  092%=      5-min Rain = 0
KTA1 060702Z 17013KT 15/14 A2996 RMK A01 T01540141  RH  092%=      5-min Rain = 0
KTA1 060703Z 17016KT 15/14 A2996 RMK A01 T01540141  RH  092%=      5-min Rain = 0
KTA1 060704Z 17013KT 15/14 A2996 RMK A01 T01540141  RH  092%=      5-min Rain = 0
KTA1 060705Z 17012KT 15/14 A2996 RMK A01 T01540141  RH  092%=      5-min Rain = 0
KTA1 060706Z 17013KT 15/14 A2996 RMK A01 T01530141  RH  092%=      5-min Rain = 0
KTA1 060707Z 17016KT 15/14 A2996 RMK A01 T01540141  RH  092%=      5-min Rain = 0
KTA1 060708Z 17014KT 15/14 A2996 RMK A01 T01540142  RH  092%=      5-min Rain = 0
KTA1 060709Z 17016KT 15/14 A2996 RMK A01 T01530141  RH  093%=      5-min Rain = 0
KTA1 060710Z 16014KT 15/14 A2996 RMK A01 T01530141  RH  093%=      5-min Rain = 0
KTA1 060711Z 17015KT 15/14 A2996 RMK A01 T01530141  RH  093%=      5-min Rain = 0
KTA1 060712Z 18015KT 15/14 A2996 RMK A01 T01530141  RH  093%=      5-min Rain = 0
KTA1 060713Z 18014KT 15/14 A2996 RMK A01 T01530141  RH  092%=      5-min Rain = 0
KTA1 060714Z 18013KT 15/14 A2996 RMK A01 T01530141  RH  092%=      5-min Rain = 0
KTA1 060715Z 18013KT 15/14 A2996 RMK A01 T01530141  RH  092%=      5-min Rain = 0
KTA1 060716Z 17010KT 15/14 A2996 RMK A01 T01540142  RH  092%=      5-min Rain = 0
KTA1 060717Z 17011KT 15/14 A2996 RMK A01 T01540141  RH  092%=      5-min Rain = 0
KTA1 060718Z 17015G20KT 15/14 A2996 RMK A01 T01540142  RH  092%=      5-min Rain = 0
KTA1 060719Z 17014KT 15/14 A2996 RMK A01 T01540141  RH  092%=      5-min Rain = 0
KTA1 060720Z 17014KT 15/14 A2996 RMK A01 T01540141  RH  092%=      5-min Rain = 0
KTA1 060721Z 17016G21KT 15/14 A2996 RMK A01 T01530141  RH  092%=      5-min Rain = 0
KTA1 060722Z 17017KT 15/14 A2996 RMK A01 T01540141  RH  092%=      5-min Rain = 0
KTA1 060723Z 17013G18KT 15/14 A2996 RMK A01 T01540140  RH  092%=      5-min Rain = 0
KTA1 060724Z 18015KT 15/14 A2996 RMK A01 T01540140  RH  092%=      5-min Rain = 0
KTA1 060725Z 18013KT 15/14 A2996 RMK A01 T01540140  RH  091%=      5-min Rain = 0
KTA1 060726Z 18012KT 15/14 A2996 RMK A01 T01540140  RH  091%=      5-min Rain = 0
KTA1 060727Z 18013KT 15/14 A2996 RMK A01 T01540141  RH  092%=      5-min Rain = 0
KTA1 060728Z 18013KT 15/14 A2996 RMK A01 T01540141  RH  092%=      5-min Rain = 0
KTA1 060729Z 18011KT 15/14 A2996 RMK A01 T01540141  RH  092%=      5-min Rain = 0
KTA1 060730Z 18012KT 15/14 A2996 RMK A01 T01540141  RH  092%=      5-min Rain = 0
KTA1 060731Z 17012KT 15/14 A2996 RMK A01 T01540141  RH  092%=      5-min Rain = 0
KTA1 060732Z 17015KT 15/14 A2996 RMK A01 T01540141  RH  092%=      5-min Rain = 0
KTA1 060733Z 17015KT 15/14 A2996 RMK A01 T01540141  RH  092%=      5-min Rain = 0
KTA1 060734Z 17017KT 15/14 A2996 RMK A01 T01540141  RH  092%=      5-min Rain = 0
KTA1 060735Z 17016KT 15/14 A2996 RMK A01 T01540141  RH  092%=      5-min Rain = 0
KTA1 060736Z 17015KT 15/14 A2996 RMK A01 T01540141  RH  092%=      5-min Rain = 0
KTA1 060737Z 17013KT 15/14 A2996 RMK A01 T01540141  RH  092%=      5-min Rain = 0
KTA1 060738Z 17015KT 15/14 A2996 RMK A01 T01540141  RH  092%=      5-min Rain = 0
KTA1 060739Z 16016KT 15/14 A2996 RMK A01 T01540141  RH  092%=      5-min Rain = 0
KTA1 060740Z 17013KT 15/14 A2996 RMK A01 T01530141  RH  092%=      5-min Rain = 0
KTA1 060741Z 17015KT 15/14 A2996 RMK A01 T01530141  RH  092%=      5-min Rain = 0
KTA1 060742Z 17015KT 15/14 A2996 RMK A01 T01530140  RH  092%=      5-min Rain = 0
KTA1 060743Z 17014G19KT 15/14 A2996 RMK A01 T01530141  RH  092%=      5-min Rain = 0
KTA1 060744Z 16013KT 15/14 A2996 RMK A01 T01530141  RH  092%=      5-min Rain = 0
KTA1 060745Z 17016KT 15/14 A2996 RMK A01 T01530141  RH  092%=      5-min Rain = 0
KTA1 060746Z 17014KT 15/14 A2996 RMK A01 T01530141  RH  092%=      5-min Rain = 0
KTA1 060747Z 17013G18KT 15/14 A2996 RMK A01 T01530141  RH  093%=      5-min Rain = 0
KTA1 060748Z 17014KT 15/14 A2996 RMK A01 T01530142  RH  093%=      5-min Rain = 0
KTA1 060749Z 17015KT 15/14 A2996 RMK A01 T01530142  RH  093%=      5-min Rain = 0
KTA1 060750Z 17015KT 15/14 A2996 RMK A01 T01530142  RH  093%=      5-min Rain = 0
KTA1 060751Z 16012G17KT 15/14 A2996 RMK A01 T01530142  RH  093%=      5-min Rain = 0
KTA1 060752Z 17016KT 15/14 A2996 RMK A01 T01530142  RH  093%=      5-min Rain = 0
KTA1 060753Z 17016KT 15/14 A2996 RMK A01 T01530141  RH  093%=      5-min Rain = 0
KTA1 060754Z 17015KT 15/14 A2996 RMK A01 T01530142  RH  093%=      5-min Rain = 0
KTA1 060755Z 17016KT 15/14 A2996 RMK A01 T01530141  RH  093%=      5-min Rain = 0
KTA1 060756Z 17016KT 15/14 A2996 RMK A01 T01530141  RH  093%=      5-min Rain = 0
KTA1 060757Z 17017KT 15/14 A2996 RMK A01 T01530141  RH  093%=      5-min Rain = 0
KTA1 060758Z 17015KT 15/14 A2996 RMK A01 T01530141  RH  093%=      5-min Rain = 0
KTA1 060759Z 17015KT 15/14 A2996 RMK A01 T01530141  RH  093%=      5-min Rain = 0
KTA1 060800Z 17015KT 15/14 A2996 RMK A01 T01530142  RH  093%=      5-min Rain = 0
KTA1 060801Z 17017KT 15/14 A2996 RMK A01 T01520141  RH  093%=      5-min Rain = 0
KTA1 060802Z 17015KT 15/14 A2996 RMK A01 T01530141  RH  093%=      5-min Rain = 0
KTA1 060803Z 17016KT 15/14 A2996 RMK A01 T01520141  RH  093%=      5-min Rain = 0
KTA1 060804Z 16015KT 15/14 A2996 RMK A01 T01520141  RH  093%=      5-min Rain = 0
KTA1 060805Z 17014KT 15/14 A2996 RMK A01 T01520141  RH  093%=      5-min Rain = 0
KTA1 060806Z 17015KT 15/14 A2996 RMK A01 T01520142  RH  093%=      5-min Rain = 0
KTA1 060807Z 17017KT 15/14 A2996 RMK A01 T01520142  RH  093%=      5-min Rain = 0
KTA1 060808Z 17016KT 15/14 A2996 RMK A01 T01520142  RH  093%=      5-min Rain = 0
KTA1 060809Z 17014KT 15/14 A2996 RMK A01 T01520141  RH  093%=      5-min Rain = 0
KTA1 060810Z 17012KT 15/14 A2996 RMK A01 T01520141  RH  093%=      5-min Rain = 0
KTA1 060811Z 17015KT 15/14 A2996 RMK A01 T01520142  RH  093%=      5-min Rain = 0
KTA1 060812Z 17016KT 15/14 A2995 RMK A01 T01520141  RH  093%=      5-min Rain = 0
KTA1 060813Z 17015KT 15/14 A2995 RMK A01 T01520141  RH  093%=      5-min Rain = 0
KTA1 060814Z 17014KT 15/14 A2995 RMK A01 T01520141  RH  093%=      5-min Rain = 0
KTA1 060815Z 17014KT 15/14 A2995 RMK A01 T01520141  RH  093%=      5-min Rain = 0
KTA1 060816Z 17011KT 15/14 A2995 RMK A01 T01520141  RH  093%=      5-min Rain = 0
KTA1 060817Z 17013KT 15/14 A2995 RMK A01 T01520141  RH  093%=      5-min Rain = 0
KTA1 060818Z 17014KT 15/14 A2995 RMK A01 T01520141  RH  093%=      5-min Rain = 0
KTA1 060819Z 17014G19KT 15/14 A2995 RMK A01 T01520141  RH  093%=      5-min Rain = 0
KTA1 060820Z 17011KT 15/14 A2995 RMK A01 T01520142  RH  093%=      5-min Rain = 0
KTA1 060821Z 17012KT 15/14 A2995 RMK A01 T01530142  RH  093%=      5-min Rain = 0
KTA1 060822Z 18013KT 15/14 A2995 RMK A01 T01530142  RH  093%=      5-min Rain = 0
KTA1 060823Z 17014KT 15/14 A2995 RMK A01 T01530142  RH  093%=      5-min Rain = 0
KTA1 060824Z 17013KT 15/14 A2995 RMK A01 T01530142  RH  093%=      5-min Rain = 0
KTA1 060825Z 17015KT 15/14 A2995 RMK A01 T01530142  RH  093%=      5-min Rain = 0
KTA1 060826Z 18014KT 15/14 A2995 RMK A01 T01530142  RH  093%=      5-min Rain = 0
KTA1 060827Z 17011KT 15/14 A2995 RMK A01 T01530142  RH  093%=      5-min Rain = 0
KTA1 060828Z 17013KT 15/14 A2995 RMK A01 T01530142  RH  093%=      5-min Rain = 0
KTA1 060829Z 18014KT 15/14 A2995 RMK A01 T01530142  RH  093%=      5-min Rain = 0
KTA1 060830Z 17011KT 15/14 A2995 RMK A01 T01530142  RH  093%=      5-min Rain = 0
KTA1 060831Z 18013KT 15/14 A2995 RMK A01 T01530142  RH  093%=      5-min Rain = 0
KTA1 060832Z 18016KT 15/14 A2995 RMK A01 T01530142  RH  093%=      5-min Rain = 0
KTA1 060833Z 18013KT 15/14 A2995 RMK A01 T01530142  RH  093%=      5-min Rain = 0
KTA1 060834Z 18011KT 15/14 A2995 RMK A01 T01530142  RH  093%=      5-min Rain = 0
KTA1 060835Z 18014G19KT 15/14 A2994 RMK A01 T01530142  RH  093%=      5-min Rain = 0
KTA1 060836Z 18015KT 15/14 A2994 RMK A01 T01530142  RH  093%=      5-min Rain = 0
KTA1 060837Z 18014KT 15/14 A2994 RMK A01 T01530142  RH  093%=      5-min Rain = 0
KTA1 060838Z 18012KT 15/14 A2994 RMK A01 T01530143  RH  094%=      5-min Rain = 0
KTA1 060839Z 18012KT 15/14 A2994 RMK A01 T01530143  RH  094%=      5-min Rain = 0
KTA1 060840Z 17012KT 15/14 A2994 RMK A01 T01530143  RH  094%=      5-min Rain = 0
KTA1 060841Z 18011KT 15/14 A2994 RMK A01 T01530143  RH  094%=      5-min Rain = 0
KTA1 060842Z 18015KT 15/14 A2994 RMK A01 T01530143  RH  094%=      5-min Rain = 0
KTA1 060843Z 18017KT 15/14 A2994 RMK A01 T01530142  RH  094%=      5-min Rain = 0
KTA1 060844Z 17014G20KT 15/14 A2994 RMK A01 T01530142  RH  094%=      5-min Rain = 0
KTA1 060845Z 18011G16KT 15/14 A2995 RMK A01 T01530143  RH  094%=      5-min Rain = 0
KTA1 060846Z 18011KT 15/14 A2995 RMK A01 T01530143  RH  094%=      5-min Rain = 0
KTA1 060847Z 18014KT 15/14 A2995 RMK A01 T01530143  RH  094%=      5-min Rain = 0
KTA1 060848Z 18013KT 15/14 A2995 RMK A01 T01530143  RH  094%=      5-min Rain = 0
KTA1 060849Z 18014KT 15/14 A2995 RMK A01 T01530143  RH  094%=      5-min Rain = 0
KTA1 060850Z 18013KT 15/14 A2995 RMK A01 T01530143  RH  094%=      5-min Rain = 0
KTA1 060851Z 18013KT 15/14 A2995 RMK A01 T01530143  RH  094%=      5-min Rain = 0
KTA1 060852Z 18014KT 15/14 A2995 RMK A01 T01530143  RH  094%=      5-min Rain = 0
KTA1 060853Z 18013KT 15/14 A2995 RMK A01 T01530143  RH  094%=      5-min Rain = 0
KTA1 060854Z 18015KT 15/14 A2995 RMK A01 T01530143  RH  094%=      5-min Rain = 0
KTA1 060855Z 18011KT 15/14 A2995 RMK A01 T01530143  RH  094%=      5-min Rain = 0
KTA1 060856Z 18013KT 15/14 A2995 RMK A01 T01530143  RH  094%=      5-min Rain = 0
KTA1 060857Z 18011KT 15/14 A2995 RMK A01 T01530143  RH  094%=      5-min Rain = 0
KTA1 060858Z 18011KT 15/14 A2995 RMK A01 T01530143  RH  094%=      5-min Rain = 0
KTA1 060859Z 18012KT 15/14 A2995 RMK A01 T01530143  RH  094%=      5-min Rain = 0
KTA1 060900Z 18013KT 15/14 A2995 RMK A01 T01530143  RH  094%=      5-min Rain = 0
KTA1 060901Z 18012KT 15/14 A2995 RMK A01 T01530143  RH  094%=      5-min Rain = 0
KTA1 060902Z 18011KT 15/14 A2995 RMK A01 T01530143  RH  094%=      5-min Rain = 0
KTA1 060903Z 18009KT 15/14 A2995 RMK A01 T01530143  RH  094%=      5-min Rain = 0
KTA1 060904Z 18008KT 15/14 A2995 RMK A01 T01530144  RH  094%=      5-min Rain = 0
KTA1 060905Z 18012KT 15/14 A2996 RMK A01 T01530144  RH  094%=      5-min Rain = 0
KTA1 060906Z 19012KT 15/14 A2996 RMK A01 T01530143  RH  094%=      5-min Rain = 0
KTA1 060907Z 18012KT 15/14 A2996 RMK A01 T01530143  RH  094%=      5-min Rain = 0
KTA1 060908Z 18011KT 15/14 A2996 RMK A01 T01530143  RH  094%=      5-min Rain = 0
KTA1 060909Z 18012KT 15/14 A2996 RMK A01 T01530144  RH  094%=      5-min Rain = 0
KTA1 060910Z 17014KT 15/14 A2995 RMK A01 T01530144  RH  094%=      5-min Rain = 0
KTA1 060911Z 18012KT 15/14 A2995 RMK A01 T01530144  RH  094%=      5-min Rain = 0
KTA1 060912Z 18012KT 15/14 A2995 RMK A01 T01530144  RH  094%=      5-min Rain = 0
KTA1 060913Z 18014KT 15/14 A2995 RMK A01 T01530144  RH  094%=      5-min Rain = 0
KTA1 060914Z 18014KT 15/14 A2995 RMK A01 T01530143  RH  094%=      5-min Rain = 0
KTA1 060915Z 18013KT 15/14 A2995 RMK A01 T01530143  RH  094%=      5-min Rain = 0
KTA1 060916Z 17013KT 15/14 A2995 RMK A01 T01530143  RH  094%=      5-min Rain = 0
KTA1 060917Z 17014KT 15/14 A2994 RMK A01 T01530144  RH  094%=      5-min Rain = 0
KTA1 060918Z 17010KT 15/14 A2995 RMK A01 T01530143  RH  094%=      5-min Rain = 0
KTA1 060919Z 18014KT 15/14 A2994 RMK A01 T01530143  RH  094%=      5-min Rain = 0
KTA1 060920Z 18012KT 15/14 A2995 RMK A01 T01530143  RH  094%=      5-min Rain = 0
KTA1 060921Z 18012KT 15/14 A2994 RMK A01 T01530144  RH  094%=      5-min Rain = 0
KTA1 060922Z 17012KT 15/14 A2994 RMK A01 T01530144  RH  094%=      5-min Rain = 0
KTA1 060923Z 18010KT 15/14 A2994 RMK A01 T01530143  RH  094%=      5-min Rain = 0
KTA1 060924Z 18012KT 15/14 A2994 RMK A01 T01530143  RH  094%=      5-min Rain = 0
KTA1 060925Z 18010KT 15/14 A2994 RMK A01 T01530143  RH  094%=      5-min Rain = 0
KTA1 060926Z 18010KT 15/14 A2994 RMK A01 T01530143  RH  094%=      5-min Rain = 0
KTA1 060927Z 18009KT 15/14 A2994 RMK A01 T01530143  RH  094%=      5-min Rain = 0
KTA1 060928Z 18011KT 15/14 A2994 RMK A01 T01530143  RH  094%=      5-min Rain = 0
KTA1 060929Z 17012KT 15/14 A2994 RMK A01 T01530144  RH  094%=      5-min Rain = 0
KTA1 060930Z 16009KT 15/14 A2994 RMK A01 T01530144  RH  094%=      5-min Rain = 0
KTA1 060931Z 17010KT 15/14 A2994 RMK A01 T01530144  RH  095%=      5-min Rain = 0
KTA1 060932Z 16010KT 15/14 A2994 RMK A01 T01530144  RH  095%=      5-min Rain = 0
KTA1 060933Z 17012KT 15/14 A2994 RMK A01 T01520144  RH  095%=      5-min Rain = 0
KTA1 060934Z 16011G16KT 15/14 A2994 RMK A01 T01520144  RH  095%=      5-min Rain = 0
KTA1 060935Z 17015KT 15/14 A2994 RMK A01 T01520144  RH  095%=      5-min Rain = 0
KTA1 060936Z 17012KT 15/15 A2994 RMK A01 T01520145  RH  095%=      5-min Rain = 0
KTA1 060937Z 16012KT 15/14 A2994 RMK A01 T01520144  RH  096%=      5-min Rain = 0
KTA1 060938Z 16014KT 15/14 A2994 RMK A01 T01510144  RH  096%=      5-min Rain = 0
KTA1 060939Z 16012KT 15/14 A2994 RMK A01 T01510144  RH  096%=      5-min Rain = 0
KTA1 060940Z 17014KT 15/14 A2994 RMK A01 T01510144  RH  096%=      5-min Rain = 0
KTA1 060941Z 17014KT 15/15 A2994 RMK A01 T01510145  RH  096%=      5-min Rain = 0
KTA1 060942Z 17011KT 15/15 A2994 RMK A01 T01510145  RH  096%=      5-min Rain = 0
KTA1 060943Z 17010KT 15/15 A2994 RMK A01 T01510145  RH  096%=      5-min Rain = 0
KTA1 060944Z 17012KT 15/15 A2994 RMK A01 T01510145  RH  096%=      5-min Rain = 0
KTA1 060945Z 17011KT 15/15 A2994 RMK A01 T01510145  RH  096%=      5-min Rain = 0
KTA1 060946Z 17011KT 15/15 A2994 RMK A01 T01510145  RH  096%=      5-min Rain = 0
KTA1 060947Z 17013KT 15/15 A2994 RMK A01 T01510145  RH  096%=      5-min Rain = 0
KTA1 060948Z 17010KT 15/15 A2994 RMK A01 T01510145  RH  096%=      5-min Rain = 0
KTA1 060949Z 17011KT 15/15 A2994 RMK A01 T01510145  RH  096%=      5-min Rain = 0
KTA1 060950Z 17011KT 15/15 A2994 RMK A01 T01510146  RH  097%=      5-min Rain = 0
KTA1 060951Z 17010KT 15/15 A2995 RMK A01 T01510146  RH  097%=      5-min Rain = 0
KTA1 060952Z 18012KT 15/15 A2995 RMK A01 T01510146  RH  097%=      5-min Rain = 0
KTA1 060953Z 17011KT 15/15 A2995 RMK A01 T01510146  RH  097%=      5-min Rain = 0
KTA1 060954Z 17010KT 15/15 A2994 RMK A01 T01510146  RH  097%=      5-min Rain = 0
KTA1 060955Z 18008KT 15/15 A2994 RMK A01 T01510146  RH  097%=      5-min Rain = 0
KTA1 060956Z 18009KT 15/15 A2994 RMK A01 T01510146  RH  097%=      5-min Rain = 0
KTA1 060957Z 18008KT 15/15 A2994 RMK A01 T01510147  RH  097%=      5-min Rain = 0
KTA1 060958Z 18014KT 15/15 A2994 RMK A01 T01510147  RH  097%=      5-min Rain = 0
KTA1 060959Z 18013KT 15/15 A2994 RMK A01 T01510145  RH  097%=      5-min Rain = 0
KTA1 061000Z 18013KT 15/15 A2994 RMK A01 T01510145  RH  096%=      5-min Rain = 0
KTA1 061001Z 18013KT 15/15 A2994 RMK A01 T01510145  RH  096%=      5-min Rain = 0
KTA1 061002Z 18013KT 15/15 A2994 RMK A01 T01510145  RH  096%=      5-min Rain = 0
KTA1 061003Z 17011KT 15/14 A2994 RMK A01 T01510144  RH  096%=      5-min Rain = 0
KTA1 061004Z 17011KT 15/14 A2994 RMK A01 T01510144  RH  096%=      5-min Rain = 0
KTA1 061005Z 18011KT 15/15 A2994 RMK A01 T01510145  RH  096%=      5-min Rain = 0
KTA1 061006Z 18012KT 15/14 A2994 RMK A01 T01510144  RH  096%=      5-min Rain = 0
KTA1 061007Z 17009KT 15/15 A2994 RMK A01 T01510145  RH  096%=      5-min Rain = 0
KTA1 061008Z 17009KT 15/15 A2994 RMK A01 T01510145  RH  096%=      5-min Rain = 0
KTA1 061009Z 17009KT 15/15 A2994 RMK A01 T01510145  RH  096%=      5-min Rain = 0
KTA1 061010Z 17009KT 15/15 A2994 RMK A01 T01510145  RH  096%=      5-min Rain = 0
KTA1 061011Z 16009KT 15/15 A2994 RMK A01 T01510146  RH  096%=      5-min Rain = 0
KTA1 061012Z 16010KT 15/15 A2994 RMK A01 T01510146  RH  097%=      5-min Rain = 0
KTA1 061013Z 17010KT 15/15 A2994 RMK A01 T01510145  RH  096%=      5-min Rain = 0
KTA1 061014Z 17009KT 15/15 A2994 RMK A01 T01510145  RH  096%=      5-min Rain = 0
KTA1 061015Z 17010KT 15/15 A2994 RMK A01 T01510145  RH  096%=      5-min Rain = 0
KTA1 061016Z 17012KT 15/15 A2994 RMK A01 T01510145  RH  096%=      5-min Rain = 0
KTA1 061017Z 17011KT 15/15 A2994 RMK A01 T01510145  RH  096%=      5-min Rain = 0
KTA1 061018Z 17010KT 15/15 A2994 RMK A01 T01510145  RH  096%=      5-min Rain = 0
KTA1 061019Z 17012KT 15/15 A2994 RMK A01 T01510145  RH  096%=      5-min Rain = 0
KTA1 061020Z 17013KT 15/14 A2994 RMK A01 T01510144  RH  096%=      5-min Rain = 0
KTA1 061021Z 17010KT 15/14 A2994 RMK A01 T01510144  RH  096%=      5-min Rain = 0
KTA1 061022Z 17011KT 15/14 A2994 RMK A01 T01510144  RH  096%=      5-min Rain = 0
KTA1 061023Z 17012KT 15/14 A2994 RMK A01 T01510144  RH  096%=      5-min Rain = 0
KTA1 061024Z 18010KT 15/14 A2994 RMK A01 T01510144  RH  096%=      5-min Rain = 0
KTA1 061025Z 17009KT 15/14 A2994 RMK A01 T01510144  RH  096%=      5-min Rain = 0
KTA1 061026Z 18011KT 15/14 A2994 RMK A01 T01510144  RH  096%=      5-min Rain = 0
KTA1 061027Z 18009KT 15/14 A2994 RMK A01 T01510144  RH  096%=      5-min Rain = 0
KTA1 061028Z 18010KT 15/14 A2994 RMK A01 T01510144  RH  096%=      5-min Rain = 0
KTA1 061029Z 18010KT 15/14 A2994 RMK A01 T01510144  RH  096%=      5-min Rain = 0
KTA1 061030Z 18010KT 15/14 A2994 RMK A01 T01510144  RH  096%=      5-min Rain = 0
KTA1 061031Z 18011KT 15/14 A2994 RMK A01 T01510144  RH  096%=      5-min Rain = 0
KTA1 061032Z 18010KT 15/15 A2994 RMK A01 T01510145  RH  096%=      5-min Rain = 0
KTA1 061033Z 18010KT 15/15 A2994 RMK A01 T01510145  RH  096%=      5-min Rain = 0
KTA1 061034Z 18011KT 15/15 A2994 RMK A01 T01510145  RH  096%=      5-min Rain = 0
KTA1 061035Z 17010KT 15/15 A2994 RMK A01 T01510145  RH  096%=      5-min Rain = 0
KTA1 061036Z 17009KT 15/15 A2994 RMK A01 T01510146  RH  097%=      5-min Rain = 0
KTA1 061037Z 17011KT 15/15 A2994 RMK A01 T01510146  RH  097%=      5-min Rain = 0
KTA1 061038Z 17010KT 15/15 A2994 RMK A01 T01500146  RH  097%=      5-min Rain = 0
KTA1 061039Z 17011KT 15/15 A2994 RMK A01 T01500146  RH  097%=      5-min Rain = 0
KTA1 061040Z 18011KT 15/15 A2994 RMK A01 T01500146  RH  097%=      5-min Rain = 0
KTA1 061041Z 17009KT 15/15 A2994 RMK A01 T01500146  RH  098%=      5-min Rain = 0
KTA1 061042Z 17010KT 15/15 A2994 RMK A01 T01500146  RH  098%=      5-min Rain = 0
KTA1 061043Z 17010KT 15/15 A2994 RMK A01 T01500147  RH  098%=      5-min Rain = 0
KTA1 061044Z 17010KT 15/15 A2994 RMK A01 T01500146  RH  098%=      5-min Rain = 0
KTA1 061045Z 17011KT 15/15 A2995 RMK A01 T01500146  RH  098%=      5-min Rain = 0
KTA1 061046Z 17011KT 15/15 A2995 RMK A01 T01500146  RH  098%=      5-min Rain = 0
KTA1 061047Z 17010KT 15/15 A2995 RMK A01 T01500146  RH  098%=      5-min Rain = 0
KTA1 061048Z 17011KT 15/15 A2995 RMK A01 T01500146  RH  098%=      5-min Rain = 0
KTA1 061049Z 17010KT 15/15 A2995 RMK A01 T01500146  RH  098%=      5-min Rain = 0
KTA1 061050Z 17010KT 15/15 A2995 RMK A01 T01500146  RH  098%=      5-min Rain = 0
KTA1 061051Z 18011KT 15/15 A2995 RMK A01 T01500146  RH  098%=      5-min Rain = 0
KTA1 061052Z 18008KT 15/15 A2995 RMK A01 T01500146  RH  097%=      5-min Rain = 0
KTA1 061053Z 18009KT 15/15 A2995 RMK A01 T01500146  RH  097%=      5-min Rain = 0
KTA1 061054Z 18011KT 15/15 A2995 RMK A01 T01500146  RH  097%=      5-min Rain = 0
KTA1 061055Z 18008KT 15/15 A2995 RMK A01 T01500146  RH  097%=      5-min Rain = 0
KTA1 061056Z 17010KT 15/15 A2995 RMK A01 T01500146  RH  097%=      5-min Rain = 0
KTA1 061057Z 17010KT 15/15 A2995 RMK A01 T01500146  RH  097%=      5-min Rain = 0
KTA1 061058Z 17011KT 15/15 A2995 RMK A01 T01510146  RH  097%=      5-min Rain = 0
KTA1 061059Z 17009KT 15/15 A2995 RMK A01 T01510146  RH  097%=      5-min Rain = 0
KTA1 061100Z 17010KT 15/15 A2995 RMK A01 T01510146  RH  097%=      5-min Rain = 0
KTA1 061101Z 18010KT 15/15 A2995 RMK A01 T01510146  RH  097%=      5-min Rain = 0
KTA1 061102Z 18009KT 15/15 A2995 RMK A01 T01500146  RH  097%=      5-min Rain = 0
KTA1 061103Z 18010KT 15/15 A2996 RMK A01 T01510146  RH  097%=      5-min Rain = 0
KTA1 061104Z 18009KT 15/15 A2996 RMK A01 T01510146  RH  097%=      5-min Rain = 0
KTA1 061105Z 18009KT 15/15 A2996 RMK A01 T01500146  RH  097%=      5-min Rain = 0
KTA1 061106Z 18009KT 15/15 A2996 RMK A01 T01510146  RH  097%=      5-min Rain = 0
KTA1 061107Z 18008KT 15/15 A2996 RMK A01 T01510146  RH  097%=      5-min Rain = 0
KTA1 061108Z 17009KT 15/15 A2996 RMK A01 T01500145  RH  097%=      5-min Rain = 0
KTA1 061109Z 18009KT 15/15 A2996 RMK A01 T01510146  RH  097%=      5-min Rain = 0
KTA1 061110Z 18009KT 15/15 A2996 RMK A01 T01510146  RH  097%=      5-min Rain = 0
KTA1 061111Z 17008KT 15/15 A2996 RMK A01 T01510146  RH  097%=      5-min Rain = 0
KTA1 061112Z 18009G14KT 15/15 A2996 RMK A01 T01510146  RH  097%=      5-min Rain = 0
KTA1 061113Z 18011KT 15/15 A2996 RMK A01 T01510146  RH  097%=      5-min Rain = 0
KTA1 061114Z 17010KT 15/15 A2996 RMK A01 T01510146  RH  097%=      5-min Rain = 0
KTA1 061115Z 17012KT 15/15 A2996 RMK A01 T01510146  RH  097%=      5-min Rain = 0
KTA1 061116Z 18009KT 15/15 A2996 RMK A01 T01510145  RH  097%=      5-min Rain = 0
KTA1 061117Z 18010KT 15/15 A2995 RMK A01 T01510146  RH  097%=      5-min Rain = 0
KTA1 061118Z 17008KT 15/15 A2995 RMK A01 T01510146  RH  097%=      5-min Rain = 0
KTA1 061119Z 18008KT 15/15 A2995 RMK A01 T01510146  RH  097%=      5-min Rain = 0
KTA1 061120Z 17007KT 15/15 A2995 RMK A01 T01510146  RH  097%=      5-min Rain = 0
KTA1 061121Z 17009KT 15/15 A2995 RMK A01 T01510146  RH  097%=      5-min Rain = 0
KTA1 061122Z 17010KT 15/15 A2995 RMK A01 T01510146  RH  097%=      5-min Rain = 0
KTA1 061123Z 17009KT 15/15 A2995 RMK A01 T01510146  RH  097%=      5-min Rain = 0
KTA1 061124Z 17010KT 15/15 A2995 RMK A01 T01510146  RH  097%=      5-min Rain = 0
KTA1 061125Z 17009KT 15/15 A2995 RMK A01 T01510146  RH  097%=      5-min Rain = 0
KTA1 061126Z 17007KT 15/15 A2995 RMK A01 T01510146  RH  097%=      5-min Rain = 0
KTA1 061127Z 17006KT 15/15 A2995 RMK A01 T01510146  RH  097%=      5-min Rain = 0
KTA1 061128Z 16007KT 15/15 A2995 RMK A01 T01510146  RH  097%=      5-min Rain = 0
KTA1 061129Z 17008KT 15/15 A2995 RMK A01 T01510146  RH  097%=      5-min Rain = 0
KTA1 061130Z 16009KT 15/15 A2995 RMK A01 T01510147  RH  097%=      5-min Rain = 0
KTA1 061131Z 16010KT 15/15 A2995 RMK A01 T01510147  RH  097%=      5-min Rain = 0
KTA1 061132Z 17012KT 15/15 A2994 RMK A01 T01510147  RH  097%=      5-min Rain = 0
KTA1 061133Z 16012KT 15/15 A2994 RMK A01 T01500146  RH  097%=      5-min Rain = 0
KTA1 061134Z 16011KT 15/15 A2994 RMK A01 T01500146  RH  097%=      5-min Rain = 0
KTA1 061135Z 16011KT 15/15 A2994 RMK A01 T01500146  RH  097%=      5-min Rain = 0
KTA1 061136Z 16011KT 15/15 A2994 RMK A01 T01510147  RH  097%=      5-min Rain = 0
KTA1 061137Z 17012KT 15/15 A2994 RMK A01 T01510146  RH  097%=      5-min Rain = 0
KTA1 061138Z 16011KT 15/15 A2995 RMK A01 T01500146  RH  097%=      5-min Rain = 0
KTA1 061139Z 16015KT 15/15 A2994 RMK A01 T01500146  RH  097%=      5-min Rain = 0
KTA1 061140Z 16014KT 15/15 A2994 RMK A01 T01500146  RH  097%=      5-min Rain = 0
KTA1 061141Z 16012KT 15/15 A2994 RMK A01 T01500146  RH  097%=      5-min Rain = 0
KTA1 061142Z 16011KT 15/15 A2994 RMK A01 T01500146  RH  097%=      5-min Rain = 0
KTA1 061143Z 15008KT 15/15 A2994 RMK A01 T01500146  RH  097%=      5-min Rain = 0
KTA1 061144Z 15011KT 15/15 A2994 RMK A01 T01500146  RH  097%=      5-min Rain = 0
KTA1 061145Z 15011KT 15/15 A2994 RMK A01 T01510146  RH  097%=      5-min Rain = 0
KTA1 061146Z 15011KT 15/15 A2994 RMK A01 T01500146  RH  097%=      5-min Rain = 0
KTA1 061147Z 15012KT 15/15 A2994 RMK A01 T01500146  RH  097%=      5-min Rain = 0
KTA1 061148Z 15012KT 15/15 A2994 RMK A01 T01510146  RH  097%=      5-min Rain = 0
KTA1 061149Z 15011KT 15/15 A2994 RMK A01 T01500146  RH  097%=      5-min Rain = 0
KTA1 061150Z 15013KT 15/15 A2994 RMK A01 T01500146  RH  097%=      5-min Rain = 0
KTA1 061151Z 15012KT 15/15 A2994 RMK A01 T01500146  RH  097%=      5-min Rain = 0
KTA1 061152Z 15010KT 15/15 A2994 RMK A01 T01510146  RH  097%=      5-min Rain = 0
KTA1 061153Z 15011KT 15/15 A2994 RMK A01 T01500146  RH  097%=      5-min Rain = 0
KTA1 061154Z 15013KT 15/15 A2993 RMK A01 T01500147  RH  098%=      5-min Rain = 0
KTA1 061155Z 14012KT 15/15 A2993 RMK A01 T01500147  RH  098%=      5-min Rain = 0
KTA1 061156Z 14010KT 15/15 A2993 RMK A01 T01500147  RH  098%=      5-min Rain = 0
KTA1 061157Z 13011KT 15/15 A2993 RMK A01 T01510148  RH  098%=      5-min Rain = 0
KTA1 061158Z 14010KT 15/15 A2993 RMK A01 T01500148  RH  099%=      5-min Rain = 0
KTA1 061159Z 15008KT 15/15 A2994 RMK A01 T01500148  RH  099%=      5-min Rain = 0
KTA1 061200Z 15008KT 15/15 A2994 RMK A01 T01500148  RH  099%=      5-min Rain = 0
KTA1 061201Z 16006KT 15/15 A2994 RMK A01 T01500149  RH  099%=      5-min Rain = 0
KTA1 061202Z 18006KT 15/15 A2994 RMK A01 T01500149  RH  099%=      5-min Rain = 0
KTA1 061203Z 17007KT 15/15 A2995 RMK A01 T01500149  RH  099%=      5-min Rain = 0
KTA1 061204Z 16009KT 15/15 A2995 RMK A01 T01500149  RH  099%=      5-min Rain = 0
KTA1 061205Z 18009KT 15/15 A2995 RMK A01 T01500149  RH  099%=      5-min Rain = 0
KTA1 061206Z 18008KT 15/15 A2995 RMK A01 T01500149  RH  099%=      5-min Rain = 0
KTA1 061207Z 18008KT 15/15 A2995 RMK A01 T01500149  RH  099%=      5-min Rain = 0
KTA1 061208Z 18008KT 15/15 A2995 RMK A01 T01500148  RH  099%=      5-min Rain = 0
KTA1 061209Z 17007KT 15/15 A2995 RMK A01 T01500149  RH  099%=      5-min Rain = 0
KTA1 061210Z 18007KT 15/15 A2995 RMK A01 T01500148  RH  099%=      5-min Rain = 0
KTA1 061211Z 19006KT 15/15 A2995 RMK A01 T01500149  RH  099%=      5-min Rain = 0
KTA1 061212Z 18008KT 15/15 A2995 RMK A01 T01500149  RH  099%=      5-min Rain = 0
KTA1 061213Z 17009KT 15/15 A2995 RMK A01 T01510149  RH  099%=      5-min Rain = 0
KTA1 061214Z 17009KT 15/15 A2995 RMK A01 T01500149  RH  099%=      5-min Rain = 0
KTA1 061215Z 18007KT 15/15 A2995 RMK A01 T01510149  RH  099%=      5-min Rain = 0
KTA1 061216Z 17008KT 15/15 A2995 RMK A01 T01510149  RH  099%=      5-min Rain = 0
KTA1 061217Z 18008KT 15/15 A2995 RMK A01 T01510149  RH  099%=      5-min Rain = 0
KTA1 061218Z 18008KT 15/15 A2996 RMK A01 T01510149  RH  099%=      5-min Rain = 0
KTA1 061219Z 18009KT 15/15 A2996 RMK A01 T01510149  RH  099%=      5-min Rain = 0
KTA1 061220Z 18007KT 15/15 A2996 RMK A01 T01510149  RH  098%=      5-min Rain = 0
KTA1 061221Z 18007KT 15/15 A2996 RMK A01 T01510149  RH  098%=      5-min Rain = 0
KTA1 061222Z 18008KT 15/15 A2996 RMK A01 T01510149  RH  098%=      5-min Rain = 0
KTA1 061223Z 17008KT 15/15 A2996 RMK A01 T01510149  RH  099%=      5-min Rain = 0
KTA1 061224Z 17007KT 15/15 A2996 RMK A01 T01510149  RH  099%=      5-min Rain = 0
KTA1 061225Z 17007KT 15/15 A2996 RMK A01 T01510149  RH  099%=      5-min Rain = 0
KTA1 061226Z 17007KT 15/15 A2996 RMK A01 T01510149  RH  099%=      5-min Rain = 0
KTA1 061227Z 17007KT 15/15 A2996 RMK A01 T01510150  RH  099%=      5-min Rain = 0
KTA1 061228Z 17005KT 15/15 A2996 RMK A01 T01510150  RH  099%=      5-min Rain = 0
KTA1 061229Z 17007KT 15/15 A2996 RMK A01 T01510150  RH  099%=      5-min Rain = 0
KTA1 061230Z 17008KT 15/15 A2996 RMK A01 T01510149  RH  099%=      5-min Rain = 0
KTA1 061231Z 16011KT 15/15 A2996 RMK A01 T01510149  RH  099%=      5-min Rain = 0
KTA1 061232Z 16010KT 15/15 A2996 RMK A01 T01520149  RH  099%=      5-min Rain = 0
KTA1 061233Z 17010KT 15/15 A2996 RMK A01 T01510149  RH  098%=      5-min Rain = 0
KTA1 061234Z 17009KT 15/15 A2996 RMK A01 T01520150  RH  099%=      5-min Rain = 0
KTA1 061235Z 17009KT 15/15 A2996 RMK A01 T01510149  RH  099%=      5-min Rain = 0
KTA1 061236Z 16009KT 15/15 A2996 RMK A01 T01510149  RH  099%=      5-min Rain = 0
KTA1 061237Z 16007KT 15/15 A2996 RMK A01 T01510150  RH  099%=      5-min Rain = 0
KTA1 061238Z 16006KT 15/15 A2996 RMK A01 T01510150  RH  099%=      5-min Rain = 0
KTA1 061239Z 15006KT 15/15 A2996 RMK A01 T01510150  RH  099%=      5-min Rain = 0
KTA1 061240Z 15007KT 15/15 A2996 RMK A01 T01510150  RH  099%=      5-min Rain = 0
KTA1 061241Z 16006KT 15/15 A2996 RMK A01 T01510150  RH  099%=      5-min Rain = 0
KTA1 061242Z 16007KT 15/15 A2996 RMK A01 T01510151  RH  100%=      5-min Rain = 0
KTA1 061243Z 17007KT 15/15 A2996 RMK A01 T01510151  RH  100%=      5-min Rain = 0
KTA1 061244Z 16006KT 15/15 A2996 RMK A01 T01510151  RH  100%=      5-min Rain = 0
KTA1 061245Z 15007KT 15/15 A2996 RMK A01 T01510151  RH  100%=      5-min Rain = 0
KTA1 061246Z 16008KT 15/15 A2996 RMK A01 T01510151  RH  100%=      5-min Rain = 0
KTA1 061247Z 16008KT 15/15 A2996 RMK A01 T01510151  RH  100%=      5-min Rain = 0
KTA1 061248Z 15011KT 15/15 A2996 RMK A01 T01510151  RH  099%=      5-min Rain = 0
KTA1 061249Z 16009KT 15/15 A2996 RMK A01 T01510150  RH  099%=      5-min Rain = 0
KTA1 061250Z 16008KT 15/15 A2996 RMK A01 T01520150  RH  099%=      5-min Rain = 0
KTA1 061251Z 17010KT 15/15 A2996 RMK A01 T01520150  RH  099%=      5-min Rain = 0
KTA1 061252Z 17008KT 15/15 A2996 RMK A01 T01520150  RH  099%=      5-min Rain = 0
KTA1 061253Z 16010KT 15/15 A2996 RMK A01 T01520150  RH  099%=      5-min Rain = 0
KTA1 061254Z 16009KT 15/15 A2996 RMK A01 T01520150  RH  099%=      5-min Rain = 0
KTA1 061255Z 16011KT 15/15 A2996 RMK A01 T01520150  RH  099%=      5-min Rain = 0
KTA1 061256Z 16011KT 15/15 A2996 RMK A01 T01520151  RH  099%=      5-min Rain = 0
KTA1 061257Z 16010KT 15/15 A2997 RMK A01 T01520151  RH  099%=      5-min Rain = 0
KTA1 061258Z 16007KT 15/15 A2997 RMK A01 T01520151  RH  099%=      5-min Rain = 0
KTA1 061259Z 17007KT 15/15 A2997 RMK A01 T01520151  RH  099%=      5-min Rain = 0
KTA1 061300Z 17009KT 15/15 A2997 RMK A01 T01520152  RH  100%=      5-min Rain = 0
KTA1 061301Z 17010KT 15/15 A2997 RMK A01 T01520152  RH  100%=      5-min Rain = 0
KTA1 061302Z 17010KT 15/15 A2998 RMK A01 T01520151  RH  100%=      5-min Rain = 0
KTA1 061303Z 16011KT 15/15 A2998 RMK A01 T01520151  RH  100%=      5-min Rain = 0
KTA1 061304Z 17012KT 15/15 A2998 RMK A01 T01520151  RH  100%=      5-min Rain = 0
KTA1 061305Z 16011KT 15/15 A2998 RMK A01 T01520151  RH  099%=      5-min Rain = 0
KTA1 061306Z 16009KT 15/15 A2997 RMK A01 T01520151  RH  099%=      5-min Rain = 0
KTA1 061307Z 16009KT 15/15 A2997 RMK A01 T01520151  RH  099%=      5-min Rain = 0
KTA1 061308Z 16011KT 15/15 A2997 RMK A01 T01520151  RH  099%=      5-min Rain = 0
KTA1 061309Z 16011KT 15/15 A2997 RMK A01 T01520151  RH  099%=      5-min Rain = 0
KTA1 061310Z 16009KT 15/15 A2997 RMK A01 T01520151  RH  099%=      5-min Rain = 0
KTA1 061311Z 16011KT 15/15 A2997 RMK A01 T01520151  RH  099%=      5-min Rain = 0
KTA1 061312Z 16012KT 15/15 A2997 RMK A01 T01520151  RH  099%=      5-min Rain = 0
KTA1 061313Z 15011KT 15/15 A2997 RMK A01 T01530151  RH  099%=      5-min Rain = 0
KTA1 061314Z 15011KT 15/15 A2997 RMK A01 T01530151  RH  099%=      5-min Rain = 0
KTA1 061315Z 16011KT 15/15 A2997 RMK A01 T01530151  RH  099%=      5-min Rain = 0
KTA1 061316Z 16008KT 15/15 A2997 RMK A01 T01530151  RH  099%=      5-min Rain = 0
KTA1 061317Z 15009KT 15/15 A2997 RMK A01 T01530151  RH  099%=      5-min Rain = 0
KTA1 061318Z 16009KT 15/15 A2997 RMK A01 T01530152  RH  099%=      5-min Rain = 0
KTA1 061319Z 15010KT 15/15 A2997 RMK A01 T01530152  RH  099%=      5-min Rain = 0
KTA1 061320Z 15010KT 15/15 A2997 RMK A01 T01530151  RH  099%=      5-min Rain = 0
KTA1 061321Z 15009KT 15/15 A2997 RMK A01 T01530151  RH  099%=      5-min Rain = 0
KTA1 061322Z 15008KT 15/15 A2997 RMK A01 T01530152  RH  099%=      5-min Rain = 0
KTA1 061323Z 15007KT 15/15 A2997 RMK A01 T01530152  RH  100%=      5-min Rain = 0
KTA1 061324Z 15007KT 15/15 A2997 RMK A01 T01530152  RH  100%=      5-min Rain = 0
KTA1 061325Z 15007KT 15/15 A2997 RMK A01 T01530152  RH  100%=      5-min Rain = 0
KTA1 061326Z 14007KT 15/15 A2997 RMK A01 T01530153  RH  100%=      5-min Rain = 0
KTA1 061327Z 14006KT 15/15 A2997 RMK A01 T01530153  RH  100%=      5-min Rain = 0
KTA1 061328Z 14008KT 15/15 A2997 RMK A01 T01530153  RH  100%=      5-min Rain = 0
KTA1 061329Z 14008KT 15/15 A2997 RMK A01 T01530153  RH  100%=      5-min Rain = 0
KTA1 061330Z 15007KT 15/15 A2997 RMK A01 T01530153  RH  100%=      5-min Rain = 0
KTA1 061331Z 14006KT 15/15 A2997 RMK A01 T01530153  RH  100%=      5-min Rain = 0
KTA1 061332Z 14006KT 15/15 A2997 RMK A01 T01530153  RH  100%=      5-min Rain = 0
KTA1 061333Z 15007KT 15/15 A2998 RMK A01 T01530153  RH  100%=      5-min Rain = 0
KTA1 061334Z 14008KT 15/15 A2998 RMK A01 T01530153  RH  100%=      5-min Rain = 0
KTA1 061335Z 15007KT 15/15 A2998 RMK A01 T01530153  RH  100%=      5-min Rain = 0
KTA1 061336Z 16008KT 15/15 A2998 RMK A01 T01530153  RH  100%=      5-min Rain = 0
KTA1 061337Z 16007KT 15/15 A2998 RMK A01 T01530153  RH  100%=      5-min Rain = 0
KTA1 061338Z 16007KT 15/15 A2999 RMK A01 T01530153  RH  100%=      5-min Rain = 0
KTA1 061339Z 16006KT 15/15 A2999 RMK A01 T01530153  RH  100%=      5-min Rain = 0
KTA1 061340Z 15006KT 15/15 A2998 RMK A01 T01530153  RH  100%=      5-min Rain = 0
KTA1 061341Z 16004KT 15/15 A2998 RMK A01 T01530153  RH  100%=      5-min Rain = 0
KTA1 061342Z 16005KT 15/15 A2998 RMK A01 T01530153  RH  100%=      5-min Rain = 0
KTA1 061343Z 16007KT 15/15 A2998 RMK A01 T01530153  RH  100%=      5-min Rain = 0
KTA1 061344Z 16007KT 15/15 A2999 RMK A01 T01530154  RH  100%=      5-min Rain = 0
KTA1 061345Z 16006KT 15/15 A2999 RMK A01 T01540154  RH  100%=      5-min Rain = 0
KTA1 061346Z 17006KT 15/15 A2998 RMK A01 T01540154  RH  100%=      5-min Rain = 0
KTA1 061347Z 15007KT 15/15 A2998 RMK A01 T01540154  RH  100%=      5-min Rain = 0
KTA1 061348Z 16008KT 15/15 A2998 RMK A01 T01540154  RH  100%=      5-min Rain = 0
KTA1 061349Z 17009KT 15/15 A2998 RMK A01 T01540154  RH  100%=      5-min Rain = 0
KTA1 061350Z 16008KT 15/15 A2998 RMK A01 T01540153  RH  100%=      5-min Rain = 0
KTA1 061351Z 16008KT 15/15 A2999 RMK A01 T01540154  RH  100%=      5-min Rain = 0
KTA1 061352Z 17009KT 15/15 A2999 RMK A01 T01540153  RH  099%=      5-min Rain = 0
KTA1 061353Z 17010KT 15/15 A2999 RMK A01 T01540153  RH  099%=      5-min Rain = 0
KTA1 061354Z 17009KT 15/15 A2999 RMK A01 T01540153  RH  099%=      5-min Rain = 0
KTA1 061355Z 17010KT 15/15 A2999 RMK A01 T01540152  RH  099%=      5-min Rain = 0
KTA1 061356Z 17009KT 15/15 A2999 RMK A01 T01540152  RH  098%=      5-min Rain = 0
KTA1 061357Z 17008KT 15/15 A2999 RMK A01 T01540152  RH  098%=      5-min Rain = 0
KTA1 061358Z 17007KT 16/15 A2999 RMK A01 T01550153  RH  099%=      5-min Rain = 0
KTA1 061359Z 17007KT 15/15 A2999 RMK A01 T01540153  RH  099%=      5-min Rain = 0
KTA1 061400Z 17008KT 16/15 A2999 RMK A01 T01550153  RH  099%=      5-min Rain = 0
KTA1 061401Z 17007KT 16/15 A2999 RMK A01 T01550153  RH  099%=      5-min Rain = 0
KTA1 061402Z 17008KT 16/15 A2999 RMK A01 T01550153  RH  099%=      5-min Rain = 0
KTA1 061403Z 17009KT 16/15 A2999 RMK A01 T01550152  RH  098%=      5-min Rain = 0
KTA1 061404Z 17010KT 16/15 A2999 RMK A01 T01560153  RH  098%=      5-min Rain = 0
KTA1 061405Z 17011KT 16/15 A2999 RMK A01 T01560152  RH  098%=      5-min Rain = 0
KTA1 061406Z 17008KT 16/15 A30 RMK A01 T01560152  RH  098%=      5-min Rain = 0
KTA1 061407Z 18006KT 16/15 A30 RMK A01 T01550152  RH  098%=      5-min Rain = 0
KTA1 061408Z 18008KT 16/15 A30 RMK A01 T01550153  RH  098%=      5-min Rain = 0
KTA1 061409Z 18008KT 16/15 A30 RMK A01 T01560152  RH  098%=      5-min Rain = 0
KTA1 061410Z 19009KT 16/15 A30 RMK A01 T01560152  RH  098%=      5-min Rain = 0
KTA1 061411Z 19008KT 16/15 A3001 RMK A01 T01560152  RH  098%=      5-min Rain = 0
KTA1 061412Z 19005KT 16/15 A3001 RMK A01 T01550152  RH  098%=      5-min Rain = 0
KTA1 061413Z 20006KT 16/15 A3001 RMK A01 T01550152  RH  098%=      5-min Rain = 0
KTA1 061414Z 19008KT 16/15 A3001 RMK A01 T01550152  RH  098%=      5-min Rain = 0
KTA1 061415Z 19007KT 16/15 A3001 RMK A01 T01560152  RH  098%=      5-min Rain = 0
KTA1 061416Z 19006KT 16/15 A3001 RMK A01 T01550153  RH  098%=      5-min Rain = 0
KTA1 061417Z 19006KT 16/15 A3001 RMK A01 T01550153  RH  098%=      5-min Rain = 0
KTA1 061418Z 20005KT 16/15 A3001 RMK A01 T01550153  RH  098%=      5-min Rain = 0
KTA1 061419Z 19005KT 16/15 A3001 RMK A01 T01560153  RH  099%=      5-min Rain = 0
KTA1 061420Z 19007KT 16/15 A3001 RMK A01 T01560153  RH  098%=      5-min Rain = 0
KTA1 061421Z 19007KT 16/15 A3001 RMK A01 T01550153  RH  098%=      5-min Rain = 0
KTA1 061422Z 18009KT 16/15 A3001 RMK A01 T01560153  RH  099%=      5-min Rain = 0
KTA1 061423Z 18009KT 16/15 A3001 RMK A01 T01550153  RH  098%=      5-min Rain = 0
KTA1 061424Z 18010KT 16/15 A3001 RMK A01 T01550152  RH  098%=      5-min Rain = 0
KTA1 061425Z 19007KT 16/15 A3001 RMK A01 T01550152  RH  098%=      5-min Rain = 0
KTA1 061426Z 19007KT 16/15 A3001 RMK A01 T01550153  RH  098%=      5-min Rain = 0
KTA1 061427Z 17007KT 16/15 A3001 RMK A01 T01550153  RH  098%=      5-min Rain = 0
KTA1 061428Z 17006KT 16/15 A3001 RMK A01 T01560154  RH  099%=      5-min Rain = 0
KTA1 061429Z 18007KT 16/15 A3001 RMK A01 T01560154  RH  099%=      5-min Rain = 0
KTA1 061430Z 17007KT 16/15 A3001 RMK A01 T01550154  RH  099%=      5-min Rain = 0
KTA1 061431Z 17009KT 16/16 A3001 RMK A01 T01560155  RH  100%=      5-min Rain = 0
KTA1 061432Z 17008KT 16/16 A3001 RMK A01 T01550155  RH  100%=      5-min Rain = 0
KTA1 061433Z 16007KT 16/16 A3001 RMK A01 T01550155  RH  100%=      5-min Rain = 0
KTA1 061434Z 17006KT 16/16 A3001 RMK A01 T01550155  RH  100%=      5-min Rain = 0
KTA1 061435Z 17007KT 16/16 A3001 RMK A01 T01550155  RH  100%=      5-min Rain = 0
KTA1 061436Z 17006KT 16/16 A3001 RMK A01 T01550155  RH  100%=      5-min Rain = 0
KTA1 061437Z 17007KT 16/16 A3001 RMK A01 T01550155  RH  100%=      5-min Rain = 0
KTA1 061438Z 17006KT 16/16 A3001 RMK A01 T01550155  RH  100%=      5-min Rain = 0
KTA1 061439Z 17005KT 16/16 A3001 RMK A01 T01550155  RH  100%=      5-min Rain = 0
KTA1 061440Z 17006KT 16/16 A3001 RMK A01 T01550155  RH  100%=      5-min Rain = 0
KTA1 061441Z 18006KT 16/16 A3001 RMK A01 T01550155  RH  100%=      5-min Rain = 0
KTA1 061442Z 18006KT 16/16 A3001 RMK A01 T01550155  RH  100%=      5-min Rain = 0
KTA1 061443Z 18006KT 16/16 A3001 RMK A01 T01550155  RH  100%=      5-min Rain = 0
KTA1 061444Z 17006KT 15/16 A3001 RMK A01 T01540155  RH  100%=      5-min Rain = 0
KTA1 061445Z 17005KT 16/16 A3001 RMK A01 T01550155  RH  100%=      5-min Rain = 0
KTA1 061446Z 17005KT 15/16 A3001 RMK A01 T01540155  RH  100%=      5-min Rain = 0
KTA1 061447Z 18006KT 16/16 A3001 RMK A01 T01550155  RH  100%=      5-min Rain = 0
KTA1 061448Z 18006KT 15/16 A3001 RMK A01 T01540155  RH  100%=      5-min Rain = 0
KTA1 061449Z 16006KT 16/16 A3001 RMK A01 T01550155  RH  100%=      5-min Rain = 0
KTA1 061450Z 17007KT 16/16 A3001 RMK A01 T01550155  RH  100%=      5-min Rain = 0
KTA1 061451Z 17005KT 16/16 A3001 RMK A01 T01550155  RH  100%=      5-min Rain = 0
KTA1 061452Z 18006KT 16/16 A3001 RMK A01 T01550155  RH  100%=      5-min Rain = 0
KTA1 061453Z 18005KT 16/16 A3001 RMK A01 T01560156  RH  100%=      5-min Rain = 0
KTA1 061454Z 18005KT 16/16 A3001 RMK A01 T01550156  RH  100%=      5-min Rain = 0
KTA1 061455Z 19007KT 16/16 A3001 RMK A01 T01560156  RH  100%=      5-min Rain = 0
KTA1 061456Z 18007KT 16/16 A3001 RMK A01 T01550156  RH  100%=      5-min Rain = 0
KTA1 061457Z 18006KT 16/16 A3001 RMK A01 T01560156  RH  100%=      5-min Rain = 0
KTA1 061458Z 18005KT 16/16 A3001 RMK A01 T01560156  RH  100%=      5-min Rain = 0
KTA1 061459Z 17005KT 16/16 A3001 RMK A01 T01560156  RH  100%=      5-min Rain = 0
KTA1 061500Z 18006KT 16/16 A3001 RMK A01 T01570157  RH  100%=      5-min Rain = 0
KTA1 061501Z 18006KT 16/16 A3001 RMK A01 T01570157  RH  100%=      5-min Rain = 0
KTA1 061502Z 17006KT 16/16 A3001 RMK A01 T01570157  RH  100%=      5-min Rain = 0
KTA1 061503Z 17006KT 16/16 A3001 RMK A01 T01570157  RH  100%=      5-min Rain = 0
KTA1 061504Z 17006KT 16/16 A3001 RMK A01 T01580157  RH  100%=      5-min Rain = 0
KTA1 061505Z 17005KT 16/16 A3001 RMK A01 T01580157  RH  099%=      5-min Rain = 0
KTA1 061506Z 17005KT 16/16 A3001 RMK A01 T01580157  RH  099%=      5-min Rain = 0
KTA1 061507Z 18005KT 16/16 A3001 RMK A01 T01580158  RH  100%=      5-min Rain = 0
KTA1 061508Z 18006KT 16/16 A3001 RMK A01 T01590158  RH  099%=      5-min Rain = 0
KTA1 061509Z 18007KT 16/16 A3001 RMK A01 T01590157  RH  099%=      5-min Rain = 0
KTA1 061510Z 18007KT 16/16 A3002 RMK A01 T01590156  RH  098%=      5-min Rain = 0
KTA1 061511Z 18005KT 16/16 A3002 RMK A01 T01580156  RH  098%=      5-min Rain = 0
KTA1 061512Z 17005KT 16/16 A3002 RMK A01 T01590156  RH  098%=      5-min Rain = 0
KTA1 061513Z 17006KT 16/16 A3002 RMK A01 T01580155  RH  098%=      5-min Rain = 0
KTA1 061514Z 17006KT 16/16 A3002 RMK A01 T01590155  RH  098%=      5-min Rain = 0
KTA1 061515Z 16006KT 16/15 A3002 RMK A01 T01590154  RH  097%=      5-min Rain = 0
KTA1 061516Z 16006KT 16/15 A3002 RMK A01 T01590154  RH  097%=      5-min Rain = 0
KTA1 061517Z 17006KT 16/16 A3002 RMK A01 T01590155  RH  098%=      5-min Rain = 0
KTA1 061518Z 17007KT 16/16 A3002 RMK A01 T01590155  RH  098%=      5-min Rain = 0
KTA1 061519Z 17007KT 16/15 A3002 RMK A01 T01590154  RH  097%=      5-min Rain = 0
KTA1 061520Z 17006KT 16/15 A3002 RMK A01 T01590154  RH  097%=      5-min Rain = 0
KTA1 061521Z 17006KT 16/16 A3002 RMK A01 T01590155  RH  097%=      5-min Rain = 0
KTA1 061522Z 18005KT 16/16 A3002 RMK A01 T01590155  RH  098%=      5-min Rain = 0
KTA1 061523Z 17005KT 16/16 A3002 RMK A01 T01590155  RH  098%=      5-min Rain = 0
KTA1 061524Z 17006KT 16/16 A3002 RMK A01 T01590155  RH  098%=      5-min Rain = 0
KTA1 061525Z 17006KT 16/16 A3002 RMK A01 T01590155  RH  098%=      5-min Rain = 0
KTA1 061526Z 17006KT 16/16 A3002 RMK A01 T01590155  RH  097%=      5-min Rain = 0
KTA1 061527Z 17005KT 16/16 A3002 RMK A01 T01590155  RH  097%=      5-min Rain = 0
KTA1 061528Z 17007KT 16/15 A3002 RMK A01 T01590154  RH  097%=      5-min Rain = 0
KTA1 061529Z 17007KT 16/15 A3002 RMK A01 T01600154  RH  096%=      5-min Rain = 0
KTA1 061530Z 18008KT 16/15 A3002 RMK A01 T01600154  RH  096%=      5-min Rain = 0
KTA1 061531Z 17007KT 16/15 A3002 RMK A01 T01600153  RH  096%=      5-min Rain = 0
KTA1 061532Z 17007KT 16/15 A3002 RMK A01 T01600154  RH  096%=      5-min Rain = 0
KTA1 061533Z 17007KT 16/15 A3002 RMK A01 T01600154  RH  096%=      5-min Rain = 0
KTA1 061534Z 16006KT 16/15 A3002 RMK A01 T01600154  RH  096%=      5-min Rain = 0
KTA1 061535Z 17005KT 16/15 A3002 RMK A01 T01600154  RH  096%=      5-min Rain = 0
KTA1 061536Z 17006KT 16/16 A3002 RMK A01 T01600155  RH  097%=      5-min Rain = 0
KTA1 061537Z 17006KT 16/15 A3002 RMK A01 T01600154  RH  096%=      5-min Rain = 0
KTA1 061538Z 17007KT 16/15 A3002 RMK A01 T01600154  RH  096%=      5-min Rain = 0
KTA1 061539Z 17008KT 16/15 A3002 RMK A01 T01600153  RH  095%=      5-min Rain = 0
KTA1 061540Z 16007KT 16/15 A3002 RMK A01 T01600153  RH  095%=      5-min Rain = 0
KTA1 061541Z 17007KT 16/15 A3002 RMK A01 T01600153  RH  095%=      5-min Rain = 0
KTA1 061542Z 17007KT 16/15 A3002 RMK A01 T01610153  RH  095%=      5-min Rain = 0
KTA1 061543Z 17008KT 16/15 A3002 RMK A01 T01610153  RH  095%=      5-min Rain = 0
KTA1 061544Z 17009KT 16/15 A3002 RMK A01 T01610152  RH  094%=      5-min Rain = 0
KTA1 061545Z 17007KT 16/15 A3002 RMK A01 T01610153  RH  095%=      5-min Rain = 0
KTA1 061546Z 18007KT 16/15 A3002 RMK A01 T01610153  RH  095%=      5-min Rain = 0
KTA1 061547Z 18007KT 16/15 A3002 RMK A01 T01620153  RH  095%=      5-min Rain = 0
KTA1 061548Z 18007KT 16/15 A3002 RMK A01 T01610152  RH  095%=      5-min Rain = 0
KTA1 061549Z 19006KT 16/15 A3002 RMK A01 T01610152  RH  095%=      5-min Rain = 0
KTA1 061550Z 18005KT 16/15 A3002 RMK A01 T01610152  RH  095%=      5-min Rain = 0
KTA1 061551Z 19005KT 16/15 A3002 RMK A01 T01610153  RH  095%=      5-min Rain = 0
KTA1 061552Z 18005KT 16/15 A3002 RMK A01 T01610153  RH  095%=      5-min Rain = 0
KTA1 061553Z 17006KT 16/15 A3002 RMK A01 T01610153  RH  095%=      5-min Rain = 0
KTA1 061554Z 18007KT 16/15 A3002 RMK A01 T01620153  RH  095%=      5-min Rain = 0
KTA1 061555Z 16007KT 16/15 A3002 RMK A01 T01610154  RH  095%=      5-min Rain = 0
KTA1 061556Z 16005KT 16/15 A3002 RMK A01 T01610154  RH  095%=      5-min Rain = 0
KTA1 061557Z 16006KT 16/15 A3002 RMK A01 T01610154  RH  095%=      5-min Rain = 0
KTA1 061558Z 15007KT 16/15 A3002 RMK A01 T01610153  RH  095%=      5-min Rain = 0
KTA1 061559Z 14007KT 16/15 A3002 RMK A01 T01610153  RH  095%=      5-min Rain = 0
KTA1 061600Z 14007KT 16/15 A3002 RMK A01 T01610153  RH  095%=      5-min Rain = 0
KTA1 061601Z 14009KT 16/15 A3002 RMK A01 T01610153  RH  095%=      5-min Rain = 0
KTA1 061602Z 14008KT 16/15 A3002 RMK A01 T01610153  RH  095%=      5-min Rain = 0
KTA1 061603Z 14007KT 16/15 A3002 RMK A01 T01610153  RH  095%=      5-min Rain = 0
KTA1 061604Z 15007KT 16/15 A3002 RMK A01 T01610154  RH  095%=      5-min Rain = 0
KTA1 061605Z 15006KT 16/15 A3003 RMK A01 T01610153  RH  095%=      5-min Rain = 0
KTA1 061606Z 14006KT 16/15 A3003 RMK A01 T01610154  RH  095%=      5-min Rain = 0
KTA1 061607Z 14007KT 16/15 A3003 RMK A01 T01610153  RH  095%=      5-min Rain = 0
KTA1 061608Z 14007KT 16/15 A3003 RMK A01 T01610152  RH  095%=      5-min Rain = 0
KTA1 061609Z 14009KT 16/15 A3003 RMK A01 T01610152  RH  095%=      5-min Rain = 0
KTA1 061610Z 14008KT 16/15 A3003 RMK A01 T01610152  RH  094%=      5-min Rain = 0
KTA1 061611Z 15007KT 16/15 A3003 RMK A01 T01610152  RH  094%=      5-min Rain = 0
KTA1 061612Z 16005KT 16/15 A3003 RMK A01 T01610153  RH  095%=      5-min Rain = 0
KTA1 061613Z 17006KT 16/15 A3003 RMK A01 T01610154  RH  095%=      5-min Rain = 0
KTA1 061614Z 17007KT 16/15 A3003 RMK A01 T01610153  RH  095%=      5-min Rain = 0
KTA1 061615Z 17007KT 16/15 A3003 RMK A01 T01610153  RH  095%=      5-min Rain = 0
KTA1 061616Z 17007KT 16/15 A3003 RMK A01 T01610153  RH  095%=      5-min Rain = 0
KTA1 061617Z 17007KT 16/15 A3003 RMK A01 T01610154  RH  096%=      5-min Rain = 0
KTA1 061618Z 18007KT 16/15 A3003 RMK A01 T01610154  RH  096%=      5-min Rain = 0
KTA1 061619Z 18007KT 16/15 A3003 RMK A01 T01610154  RH  096%=      5-min Rain = 0
KTA1 061620Z 18006KT 16/15 A3003 RMK A01 T01610154  RH  095%=      5-min Rain = 0
KTA1 061621Z 18006KT 16/15 A3003 RMK A01 T01610154  RH  095%=      5-min Rain = 0
KTA1 061622Z 19005KT 16/15 A3003 RMK A01 T01610153  RH  095%=      5-min Rain = 0
KTA1 061623Z 18006KT 16/15 A3003 RMK A01 T01620154  RH  095%=      5-min Rain = 0
KTA1 061624Z 18007KT 16/15 A3003 RMK A01 T01620154  RH  095%=      5-min Rain = 0
KTA1 061625Z 18006KT 16/15 A3003 RMK A01 T01620153  RH  094%=      5-min Rain = 0
KTA1 061626Z 18006KT 16/15 A3003 RMK A01 T01620153  RH  094%=      5-min Rain = 0
KTA1 061627Z 18005KT 16/15 A3003 RMK A01 T01620153  RH  095%=      5-min Rain = 0
KTA1 061628Z 18006KT 16/15 A3004 RMK A01 T01620153  RH  095%=      5-min Rain = 0
KTA1 061629Z 18006KT 16/15 A3004 RMK A01 T01620153  RH  095%=      5-min Rain = 0
KTA1 061630Z 18007KT 16/15 A3004 RMK A01 T01620154  RH  095%=      5-min Rain = 0
KTA1 061631Z 18009KT 16/16 A3004 RMK A01 T01620155  RH  096%=      5-min Rain = 0
KTA1 061632Z 17008KT 16/16 A3004 RMK A01 T01610155  RH  096%=      5-min Rain = 0
KTA1 061633Z 16007KT 16/16 A3004 RMK A01 T01610156  RH  096%=      5-min Rain = 0
KTA1 061634Z 15008KT 16/16 A3003 RMK A01 T01610156  RH  097%=      5-min Rain = 0
KTA1 061635Z 15007KT 16/16 A3003 RMK A01 T01610156  RH  097%=      5-min Rain = 0
KTA1 061636Z 14007KT 16/16 A3003 RMK A01 T01600157  RH  098%=      5-min Rain = 0
KTA1 061637Z 14007KT 16/16 A3003 RMK A01 T01610158  RH  098%=      5-min Rain = 0
KTA1 061638Z 13006KT 16/16 A3003 RMK A01 T01600159  RH  099%=      5-min Rain = 0
KTA1 061639Z 13007KT 16/16 A3003 RMK A01 T01600159  RH  100%=      5-min Rain = 0
KTA1 061640Z 14006KT 16/16 A3003 RMK A01 T01600160  RH  100%=      5-min Rain = 0
KTA1 061641Z 14006KT 16/16 A3003 RMK A01 T01600161  RH  100%=      5-min Rain = 0
KTA1 061642Z 14006KT 16/16 A3003 RMK A01 T01600160  RH  100%=      5-min Rain = 0
KTA1 061643Z 14006KT 16/16 A3003 RMK A01 T01600160  RH  100%=      5-min Rain = 0
KTA1 061644Z 14007KT 16/16 A3003 RMK A01 T01600160  RH  100%=      5-min Rain = 0
KTA1 061645Z 14008KT 16/16 A3003 RMK A01 T01600160  RH  100%=      5-min Rain = 0
KTA1 061646Z 13007KT 16/16 A3003 RMK A01 T01600160  RH  100%=      5-min Rain = 0
KTA1 061647Z 13007KT 16/16 A3003 RMK A01 T01590159  RH  100%=      5-min Rain = 0
KTA1 061648Z 13009KT 16/16 A3003 RMK A01 T01590159  RH  100%=      5-min Rain = 0
KTA1 061649Z 13008KT 16/16 A3003 RMK A01 T01590159  RH  100%=      5-min Rain = 0
KTA1 061650Z 13006KT 16/16 A3003 RMK A01 T01590159  RH  100%=      5-min Rain = 0
KTA1 061651Z 13009KT 16/16 A3003 RMK A01 T01590159  RH  100%=      5-min Rain = 0
KTA1 061652Z 14009KT 16/16 A3003 RMK A01 T01590159  RH  100%=      5-min Rain = 0
KTA1 061653Z 14009KT 16/16 A3003 RMK A01 T01590159  RH  100%=      5-min Rain = 0
KTA1 061654Z 14009KT 16/16 A3003 RMK A01 T01590159  RH  100%=      5-min Rain = 0
KTA1 061655Z 13007KT 16/16 A3002 RMK A01 T01590159  RH  100%=      5-min Rain = 0
KTA1 061656Z 13008KT 16/16 A3002 RMK A01 T01590159  RH  100%=      5-min Rain = 0
KTA1 061657Z 13007KT 16/16 A3002 RMK A01 T01590159  RH  100%=      5-min Rain = 0
KTA1 061658Z 13008KT 16/16 A3002 RMK A01 T01590159  RH  100%=      5-min Rain = 0
KTA1 061659Z 14008KT 16/16 A3002 RMK A01 T01600160  RH  100%=      5-min Rain = 0
KTA1 061700Z 14009KT 16/16 A3002 RMK A01 T01600160  RH  100%=      5-min Rain = 0
KTA1 061701Z 13009KT 16/16 A3002 RMK A01 T01590159  RH  100%=      5-min Rain = 0
KTA1 061702Z 13010KT 16/16 A3002 RMK A01 T01580159  RH  100%=      5-min Rain = 0
KTA1 061703Z 13010KT 16/16 A3002 RMK A01 T01580158  RH  100%=      5-min Rain = 0
KTA1 061704Z 13010KT 16/16 A3002 RMK A01 T01580158  RH  100%=      5-min Rain = 0
KTA1 061705Z 14010KT 16/16 A3002 RMK A01 T01580158  RH  100%=      5-min Rain = 0
KTA1 061706Z 13009KT 16/16 A3002 RMK A01 T01580158  RH  100%=      5-min Rain = 0
KTA1 061707Z 13009KT 16/16 A3002 RMK A01 T01580158  RH  100%=      5-min Rain = 0
KTA1 061708Z 13009KT 16/16 A3002 RMK A01 T01580158  RH  100%=      5-min Rain = 0
KTA1 061709Z 14009KT 16/16 A3002 RMK A01 T01580158  RH  100%=      5-min Rain = 0
KTA1 061710Z 13008KT 16/16 A3002 RMK A01 T01580158  RH  100%=      5-min Rain = 0
KTA1 061711Z 13008KT 16/16 A3002 RMK A01 T01580158  RH  100%=      5-min Rain = 0
KTA1 061712Z 13008KT 16/16 A3002 RMK A01 T01580158  RH  100%=      5-min Rain = 0
KTA1 061713Z 14007KT 16/16 A3002 RMK A01 T01580158  RH  100%=      5-min Rain = 0
KTA1 061714Z 13006KT 16/16 A3002 RMK A01 T01580158  RH  100%=      5-min Rain = 0
KTA1 061715Z 13006KT 16/16 A3002 RMK A01 T01590159  RH  100%=      5-min Rain = 0
KTA1 061716Z 13006KT 16/16 A3002 RMK A01 T01590159  RH  100%=      5-min Rain = 0
KTA1 061717Z 14007KT 16/16 A3002 RMK A01 T01590159  RH  100%=      5-min Rain = 0
KTA1 061718Z 13007KT 16/16 A3002 RMK A01 T01590159  RH  100%=      5-min Rain = 0
KTA1 061719Z 14007KT 16/16 A3002 RMK A01 T01590159  RH  100%=      5-min Rain = 0
KTA1 061720Z 15007KT 16/16 A3003 RMK A01 T01590159  RH  100%=      5-min Rain = 0
KTA1 061721Z 14006KT 16/16 A3003 RMK A01 T01590159  RH  100%=      5-min Rain = 0
KTA1 061722Z 13007KT 16/16 A3003 RMK A01 T01590159  RH  100%=      5-min Rain = 0
KTA1 061723Z 13007KT 16/16 A3003 RMK A01 T01590159  RH  100%=      5-min Rain = 0
KTA1 061724Z 14006KT 16/16 A3003 RMK A01 T01590159  RH  100%=      5-min Rain = 0
KTA1 061725Z 14007KT 16/16 A3003 RMK A01 T01590159  RH  100%=      5-min Rain = 0
KTA1 061726Z 14007KT 16/16 A3002 RMK A01 T01590159  RH  100%=      5-min Rain = 0
KTA1 061727Z 14007KT 16/16 A3002 RMK A01 T01590159  RH  100%=      5-min Rain = 0
KTA1 061728Z 14007KT 16/16 A3002 RMK A01 T01590159  RH  100%=      5-min Rain = 0
KTA1 061729Z 14008KT 16/16 A3002 RMK A01 T01590159  RH  100%=      5-min Rain = 0
KTA1 061730Z 14008KT 16/16 A3002 RMK A01 T01600160  RH  100%=      5-min Rain = 0
KTA1 061731Z 14007KT 16/16 A3002 RMK A01 T01600160  RH  100%=      5-min Rain = 0
KTA1 061732Z 13007KT 16/16 A3002 RMK A01 T01600160  RH  100%=      5-min Rain = 0
KTA1 061733Z 14008KT 16/16 A3002 RMK A01 T01610161  RH  100%=      5-min Rain = 0
KTA1 061734Z 14008KT 16/16 A3002 RMK A01 T01610161  RH  100%=      5-min Rain = 0
KTA1 061735Z 14007KT 16/16 A3002 RMK A01 T01610161  RH  100%=      5-min Rain = 0
KTA1 061736Z 13007KT 16/16 A3002 RMK A01 T01610161  RH  100%=      5-min Rain = 0
KTA1 061737Z 14007KT 16/16 A3002 RMK A01 T01620162  RH  100%=      5-min Rain = 0
KTA1 061738Z 14008KT 16/16 A3001 RMK A01 T01620162  RH  100%=      5-min Rain = 0
KTA1 061739Z 14008KT 16/16 A3001 RMK A01 T01620162  RH  100%=      5-min Rain = 0
KTA1 061740Z 14009KT 16/16 A3001 RMK A01 T01630162  RH  099%=      5-min Rain = 0
KTA1 061741Z 13009KT 16/16 A3001 RMK A01 T01640163  RH  099%=      5-min Rain = 0
KTA1 061742Z 13010KT 17/16 A3001 RMK A01 T01650163  RH  099%=      5-min Rain = 0
KTA1 061743Z 13010KT 17/16 A3001 RMK A01 T01650162  RH  098%=      5-min Rain = 0
KTA1 061744Z 13010KT 17/16 A3001 RMK A01 T01650161  RH  097%=      5-min Rain = 0
KTA1 061745Z 13009KT 17/16 A3001 RMK A01 T01660161  RH  097%=      5-min Rain = 0
KTA1 061746Z 12009KT 17/16 A3001 RMK A01 T01660163  RH  098%=      5-min Rain = 0
KTA1 061747Z 12010KT 17/16 A3001 RMK A01 T01660163  RH  098%=      5-min Rain = 0
KTA1 061748Z 12009KT 17/16 A3001 RMK A01 T01660162  RH  098%=      5-min Rain = 0
KTA1 061749Z 12009KT 17/16 A3001 RMK A01 T01650163  RH  098%=      5-min Rain = 0
KTA1 061750Z 12009KT 17/17 A3001 RMK A01 T01660165  RH  099%=      5-min Rain = 0
KTA1 061751Z 12009KT 17/16 A3001 RMK A01 T01670164  RH  099%=      5-min Rain = 0
KTA1 061752Z 12010KT 17/16 A3001 RMK A01 T01670164  RH  098%=      5-min Rain = 0
KTA1 061753Z 13010KT 17/16 A3001 RMK A01 T01670162  RH  097%=      5-min Rain = 0
KTA1 061754Z 13010KT 17/16 A3001 RMK A01 T01670161  RH  096%=      5-min Rain = 0
KTA1 061755Z 13011KT 17/16 A3001 RMK A01 T01670161  RH  097%=      5-min Rain = 0
KTA1 061756Z 13011KT 17/16 A3001 RMK A01 T01660161  RH  096%=      5-min Rain = 0
KTA1 061757Z 13011KT 17/16 A3001 RMK A01 T01660161  RH  097%=      5-min Rain = 0
KTA1 061758Z 13011KT 17/16 A3001 RMK A01 T01660161  RH  097%=      5-min Rain = 0
KTA1 061759Z 13010KT 17/16 A3001 RMK A01 T01660161  RH  097%=      5-min Rain = 0
KTA1 061800Z 13009KT 17/16 A3001 RMK A01 T01670163  RH  098%=      5-min Rain = 0
KTA1 061801Z 13011KT 17/16 A3001 RMK A01 T01680163  RH  097%=      5-min Rain = 0
KTA1 061802Z 14010KT 17/16 A3001 RMK A01 T01680162  RH  097%=      5-min Rain = 0
KTA1 061803Z 14011KT 17/16 A3001 RMK A01 T01680161  RH  096%=      5-min Rain = 0
KTA1 061804Z 14010KT 17/16 A3001 RMK A01 T01680159  RH  094%=      5-min Rain = 0
KTA1 061805Z 13011KT 17/16 A3001 RMK A01 T01690159  RH  094%=      5-min Rain = 0
KTA1 061806Z 13010KT 17/16 A30 RMK A01 T01690159  RH  094%=      5-min Rain = 0
KTA1 061807Z 14012KT 17/16 A30 RMK A01 T01700159  RH  093%=      5-min Rain = 0
KTA1 061808Z 14010KT 17/16 A30 RMK A01 T01700157  RH  092%=      5-min Rain = 0
KTA1 061809Z 15011KT 17/16 A3001 RMK A01 T01700158  RH  093%=      5-min Rain = 0
KTA1 061810Z 14010KT 17/16 A3001 RMK A01 T01700159  RH  093%=      5-min Rain = 0
KTA1 061811Z 14010KT 17/16 A3001 RMK A01 T01690159  RH  094%=      5-min Rain = 0
KTA1 061812Z 14011KT 17/16 A3001 RMK A01 T01700160  RH  094%=      5-min Rain = 0
KTA1 061813Z 14010KT 17/16 A30 RMK A01 T01700159  RH  093%=      5-min Rain = 0
KTA1 061814Z 14010KT 17/16 A30 RMK A01 T01710158  RH  092%=      5-min Rain = 0
KTA1 061815Z 14011KT 17/16 A30 RMK A01 T01730160  RH  092%=      5-min Rain = 0
KTA1 061816Z 13010KT 17/16 A30 RMK A01 T01740158  RH  091%=      5-min Rain = 0
KTA1 061817Z 14010KT 17/16 A3001 RMK A01 T01740157  RH  090%=      5-min Rain = 0
KTA1 061818Z 14011KT 18/16 A3001 RMK A01 T01750157  RH  089%=      5-min Rain = 0
KTA1 061819Z 14010KT 18/16 A30 RMK A01 T01760157  RH  089%=      5-min Rain = 0
KTA1 061820Z 14011KT 18/16 A30 RMK A01 T01780160  RH  089%=      5-min Rain = 0
KTA1 061821Z 14010KT 18/16 A30 RMK A01 T01790159  RH  088%=      5-min Rain = 0
KTA1 061822Z 14010KT 18/16 A30 RMK A01 T01790159  RH  088%=      5-min Rain = 0
KTA1 061823Z 15010KT 18/16 A3001 RMK A01 T01790159  RH  088%=      5-min Rain = 0
KTA1 061824Z 15012KT 18/16 A3001 RMK A01 T01790156  RH  086%=      5-min Rain = 0
KTA1 061825Z 15011KT 18/16 A3001 RMK A01 T01800156  RH  086%=      5-min Rain = 0
KTA1 061826Z 15009KT 18/16 A3001 RMK A01 T01800156  RH  086%=      5-min Rain = 0
KTA1 061827Z 15010KT 18/16 A3001 RMK A01 T01810156  RH  085%=      5-min Rain = 0
KTA1 061828Z 15011KT 18/16 A3001 RMK A01 T01810155  RH  085%=      5-min Rain = 0
KTA1 061829Z 15008KT 18/15 A30 RMK A01 T01810154  RH  085%=      5-min Rain = 0
KTA1 061830Z 14009KT 18/16 A30 RMK A01 T01810155  RH  085%=      5-min Rain = 0
KTA1 061831Z 13009KT 18/15 A30 RMK A01 T01820154  RH  084%=      5-min Rain = 0
KTA1 061832Z 14010KT 18/15 A30 RMK A01 T01820154  RH  084%=      5-min Rain = 0
KTA1 061833Z 14010KT 18/16 A3001 RMK A01 T01820155  RH  084%=      5-min Rain = 0
KTA1 061834Z 14009KT 18/15 A3001 RMK A01 T01810154  RH  084%=      5-min Rain = 0
KTA1 061835Z 14008KT 18/16 A3001 RMK A01 T01810155  RH  085%=      5-min Rain = 0
KTA1 061836Z 14009KT 18/16 A30 RMK A01 T01810155  RH  085%=      5-min Rain = 0
KTA1 061837Z 15006KT 18/15 A30 RMK A01 T01820154  RH  084%=      5-min Rain = 0
KTA1 061838Z 16008KT 18/15 A30 RMK A01 T01840154  RH  083%=      5-min Rain = 0
KTA1 061839Z 14009KT 18/15 A30 RMK A01 T01840153  RH  082%=      5-min Rain = 0
KTA1 061840Z 15009KT 19/15 A3001 RMK A01 T01850153  RH  082%=      5-min Rain = 0
KTA1 061841Z 15010KT 19/15 A3001 RMK A01 T01850154  RH  082%=      5-min Rain = 0
KTA1 061842Z 16009KT 18/15 A3001 RMK A01 T01840153  RH  082%=      5-min Rain = 0
KTA1 061843Z 16006KT 18/15 A3001 RMK A01 T01820153  RH  083%=      5-min Rain = 0
KTA1 061844Z 15008KT 18/15 A30 RMK A01 T01810153  RH  084%=      5-min Rain = 0
KTA1 061845Z 15009KT 18/15 A3001 RMK A01 T01820152  RH  083%=      5-min Rain = 0
KTA1 061846Z 15006KT 18/15 A3001 RMK A01 T01820152  RH  082%=      5-min Rain = 0
KTA1 061847Z 17008KT 18/15 A3001 RMK A01 T01830153  RH  083%=      5-min Rain = 0
KTA1 061848Z 17008KT 18/15 A3001 RMK A01 T01830152  RH  082%=      5-min Rain = 0
KTA1 061849Z 17006KT 18/15 A3001 RMK A01 T01830152  RH  082%=      5-min Rain = 0
KTA1 061850Z 16006KT 18/15 A3001 RMK A01 T01830154  RH  083%=      5-min Rain = 0
KTA1 061851Z 17007KT 19/15 A3001 RMK A01 T01850154  RH  082%=      5-min Rain = 0
KTA1 061852Z 17009KT 19/15 A30 RMK A01 T01850152  RH  081%=      5-min Rain = 0
KTA1 061853Z 17008KT 19/15 A30 RMK A01 T01850151  RH  081%=      5-min Rain = 0
KTA1 061854Z 17008KT 18/15 A30 RMK A01 T01840150  RH  080%=      5-min Rain = 0
KTA1 061855Z 17006KT 18/15 A30 RMK A01 T01840150  RH  081%=      5-min Rain = 0
KTA1 061856Z 17007KT 18/15 A30 RMK A01 T01840149  RH  080%=      5-min Rain = 0
KTA1 061857Z 17008KT 18/15 A30 RMK A01 T01840150  RH  080%=      5-min Rain = 0
KTA1 061858Z 16008KT 19/15 A30 RMK A01 T01850151  RH  080%=      5-min Rain = 0
KTA1 061859Z 16007KT 19/15 A30 RMK A01 T01850151  RH  080%=      5-min Rain = 0
KTA1 061900Z 16006KT 19/15 A30 RMK A01 T01850151  RH  080%=      5-min Rain = 0
KTA1 061901Z 17009KT 19/15 A30 RMK A01 T01860151  RH  080%=      5-min Rain = 0
KTA1 061902Z 18008KT 19/15 A30 RMK A01 T01860150  RH  079%=      5-min Rain = 0
KTA1 061903Z 17008KT 19/15 A30 RMK A01 T01850151  RH  080%=      5-min Rain = 0
KTA1 061904Z 17006KT 19/15 A30 RMK A01 T01850151  RH  080%=      5-min Rain = 0
KTA1 061905Z 16006KT 19/15 A30 RMK A01 T01850151  RH  081%=      5-min Rain = 0
KTA1 061906Z 16009KT 19/15 A30 RMK A01 T01860151  RH  080%=      5-min Rain = 0
KTA1 061907Z 16009KT 19/15 A30 RMK A01 T01870152  RH  080%=      5-min Rain = 0
KTA1 061908Z 16007KT 19/15 A30 RMK A01 T01870151  RH  079%=      5-min Rain = 0
KTA1 061909Z 15007KT 19/15 A30 RMK A01 T01880152  RH  080%=      5-min Rain = 0
KTA1 061910Z 15005KT 19/15 A30 RMK A01 T01880152  RH  080%=      5-min Rain = 0
KTA1 061911Z 16006KT 19/15 A2999 RMK A01 T01890153  RH  080%=      5-min Rain = 0
KTA1 061912Z 17007KT 19/15 A2999 RMK A01 T01900151  RH  078%=      5-min Rain = 0
KTA1 061913Z 17007KT 19/15 A2999 RMK A01 T01900149  RH  077%=      5-min Rain = 0
KTA1 061914Z 17008KT 19/15 A2999 RMK A01 T01900150  RH  078%=      5-min Rain = 0
KTA1 061915Z 17007KT 19/15 A2999 RMK A01 T01900149  RH  077%=      5-min Rain = 0
KTA1 061916Z 17008KT 19/15 A2999 RMK A01 T01890150  RH  078%=      5-min Rain = 0
KTA1 061917Z 16008KT 19/15 A2999 RMK A01 T01900150  RH  078%=      5-min Rain = 0
KTA1 061918Z 17009KT 19/15 A2999 RMK A01 T01900150  RH  077%=      5-min Rain = 0
KTA1 061919Z 17008KT 19/15 A2999 RMK A01 T01900149  RH  077%=      5-min Rain = 0
KTA1 061920Z 16004KT 19/15 A2999 RMK A01 T01900151  RH  078%=      5-min Rain = 0
KTA1 061921Z 16005KT 19/15 A2999 RMK A01 T01900153  RH  079%=      5-min Rain = 0
KTA1 061922Z 16006KT 19/15 A2999 RMK A01 T01920152  RH  078%=      5-min Rain = 0
KTA1 061923Z 17007KT 19/15 A2999 RMK A01 T01920151  RH  077%=      5-min Rain = 0
KTA1 061924Z 18007KT 19/15 A2999 RMK A01 T01910150  RH  077%=      5-min Rain = 0
KTA1 061925Z 18008KT 19/15 A2999 RMK A01 T01900150  RH  077%=      5-min Rain = 0
KTA1 061926Z 17009KT 19/15 A2999 RMK A01 T01900151  RH  078%=      5-min Rain = 0
KTA1 061927Z 16007KT 19/15 A2999 RMK A01 T01900151  RH  078%=      5-min Rain = 0
KTA1 061928Z 15006KT 19/15 A2999 RMK A01 T01900150  RH  078%=      5-min Rain = 0
KTA1 061929Z 17006KT 19/15 A2999 RMK A01 T01890151  RH  078%=      5-min Rain = 0
KTA1 061930Z 18008KT 19/15 A2999 RMK A01 T01900148  RH  077%=      5-min Rain = 0
KTA1 061931Z 17006KT 19/15 A2999 RMK A01 T01910149  RH  077%=      5-min Rain = 0
KTA1 061932Z 16006KT 19/15 A2999 RMK A01 T01910149  RH  077%=      5-min Rain = 0
KTA1 061933Z 17005KT 19/15 A2999 RMK A01 T01910149  RH  077%=      5-min Rain = 0
KTA1 061934Z 19004KT 19/15 A2998 RMK A01 T01930152  RH  077%=      5-min Rain = 0
KTA1 061935Z 20007KT 20/15 A2998 RMK A01 T01950150  RH  075%=      5-min Rain = 0
KTA1 061936Z 20007KT 20/15 A2999 RMK A01 T01950148  RH  074%=      5-min Rain = 0
KTA1 061937Z 21006KT 20/15 A2999 RMK A01 T01950148  RH  074%=      5-min Rain = 0
KTA1 061938Z 19009KT 20/15 A2999 RMK A01 T01950149  RH  074%=      5-min Rain = 0
KTA1 061939Z 19008KT 20/15 A2998 RMK A01 T01950147  RH  074%=      5-min Rain = 0
KTA1 061940Z 19005KT 19/15 A2998 RMK A01 T01940147  RH  074%=      5-min Rain = 0
KTA1 061941Z 17005KT 19/15 A2998 RMK A01 T01930149  RH  076%=      5-min Rain = 0
KTA1 061942Z 19006KT 19/15 A2998 RMK A01 T01940148  RH  075%=      5-min Rain = 0
KTA1 061943Z 20007KT 19/15 A2998 RMK A01 T01940147  RH  074%=      5-min Rain = 0
KTA1 061944Z 20008KT 19/15 A2998 RMK A01 T01930146  RH  074%=      5-min Rain = 0
KTA1 061945Z 19006KT 19/15 A2997 RMK A01 T01940147  RH  075%=      5-min Rain = 0
KTA1 061946Z 21006KT 20/15 A2997 RMK A01 T01950150  RH  075%=      5-min Rain = 0
KTA1 061947Z 21007KT 20/15 A2998 RMK A01 T01960148  RH  074%=      5-min Rain = 0
KTA1 061948Z 19007KT 20/15 A2998 RMK A01 T01960149  RH  074%=      5-min Rain = 0
KTA1 061949Z 19006KT 20/15 A2998 RMK A01 T01970148  RH  074%=      5-min Rain = 0
KTA1 061950Z 18006KT 20/15 A2998 RMK A01 T01980149  RH  074%=      5-min Rain = 0
KTA1 061951Z 18005KT 20/15 A2998 RMK A01 T02000150  RH  073%=      5-min Rain = 0
KTA1 061952Z 19006KT 20/15 A2998 RMK A01 T02010150  RH  072%=      5-min Rain = 0
KTA1 061953Z 21006KT 20/15 A2998 RMK A01 T02010151  RH  073%=      5-min Rain = 0
KTA1 061954Z 20004KT 20/15 A2998 RMK A01 T02010149  RH  072%=      5-min Rain = 0
KTA1 061955Z 17003KT 20/15 A2998 RMK A01 T02000148  RH  072%=      5-min Rain = 0
KTA1 061956Z 17006KT 20/15 A2998 RMK A01 T01990149  RH  073%=      5-min Rain = 0
KTA1 061957Z 17008KT 20/15 A2998 RMK A01 T02000150  RH  073%=      5-min Rain = 0
KTA1 061958Z 18007KT 20/15 A2997 RMK A01 T02000148  RH  072%=      5-min Rain = 0
KTA1 061959Z 17005KT 20/15 A2997 RMK A01 T02000149  RH  072%=      5-min Rain = 0
KTA1 062000Z 17005KT 20/15 A2997 RMK A01 T02000150  RH  073%=      5-min Rain = 0
KTA1 062001Z 17006KT 20/15 A2997 RMK A01 T02000149  RH  072%=      5-min Rain = 0
KTA1 062002Z 17008KT 20/15 A2997 RMK A01 T02010148  RH  072%=      5-min Rain = 0
KTA1 062003Z 16005KT 20/15 A2997 RMK A01 T02010147  RH  071%=      5-min Rain = 0
KTA1 062004Z 16007KT 20/15 A2997 RMK A01 T02010149  RH  072%=      5-min Rain = 0
KTA1 062005Z 18006KT 20/15 A2997 RMK A01 T02020148  RH  071%=      5-min Rain = 0
KTA1 062006Z 18006KT 20/15 A2997 RMK A01 T02030147  RH  070%=      5-min Rain = 0
KTA1 062007Z 17008KT 20/15 A2997 RMK A01 T02040149  RH  070%=      5-min Rain = 0
KTA1 062008Z 17008KT 21/15 A2997 RMK A01 T02050149  RH  070%=      5-min Rain = 0
KTA1 062009Z 17007KT 21/15 A2997 RMK A01 T02050148  RH  069%=      5-min Rain = 0
KTA1 062010Z 17006KT 21/15 A2997 RMK A01 T02050149  RH  070%=      5-min Rain = 0
KTA1 062011Z 19007KT 21/15 A2997 RMK A01 T02050148  RH  070%=      5-min Rain = 0
KTA1 062012Z 19006KT 21/15 A2997 RMK A01 T02050147  RH  070%=      5-min Rain = 0
KTA1 062013Z 18005KT 20/15 A2997 RMK A01 T02030147  RH  070%=      5-min Rain = 0
KTA1 062014Z 19007KT 20/15 A2997 RMK A01 T02040150  RH  071%=      5-min Rain = 0
KTA1 062015Z 17008KT 21/15 A2997 RMK A01 T02050147  RH  069%=      5-min Rain = 0
KTA1 062016Z 18007KT 21/15 A2997 RMK A01 T02050146  RH  069%=      5-min Rain = 0
KTA1 062017Z 20005KT 21/15 A2997 RMK A01 T02050147  RH  070%=      5-min Rain = 0
KTA1 062018Z 21007KT 21/15 A2997 RMK A01 T02050149  RH  070%=      5-min Rain = 0
KTA1 062019Z 21009KT 21/15 A2997 RMK A01 T02060151  RH  071%=      5-min Rain = 0
KTA1 062020Z 22007KT 21/15 A2997 RMK A01 T02060149  RH  070%=      5-min Rain = 0
KTA1 062021Z 23007KT 21/15 A2997 RMK A01 T02060150  RH  070%=      5-min Rain = 0
KTA1 062022Z 19005KT 21/15 A2997 RMK A01 T02060150  RH  070%=      5-min Rain = 0
KTA1 062023Z 19006KT 21/15 A2997 RMK A01 T02050148  RH  070%=      5-min Rain = 0
KTA1 062024Z 19006KT 21/15 A2997 RMK A01 T02050149  RH  070%=      5-min Rain = 0
KTA1 062025Z 19007KT 21/15 A2997 RMK A01 T02050146  RH  069%=      5-min Rain = 0
KTA1 062026Z 21007KT 20/15 A2997 RMK A01 T02040145  RH  069%=      5-min Rain = 0
KTA1 062027Z 20008KT 20/15 A2997 RMK A01 T02040145  RH  069%=      5-min Rain = 0
KTA1 062028Z 21006KT 20/15 A2997 RMK A01 T02040145  RH  069%=      5-min Rain = 0
KTA1 062029Z 22005KT 20/15 A2997 RMK A01 T02040145  RH  069%=      5-min Rain = 0
KTA1 062030Z 22004KT 21/15 A2997 RMK A01 T02050146  RH  069%=      5-min Rain = 0
KTA1 062031Z 22004KT 20/15 A2997 RMK A01 T02040146  RH  069%=      5-min Rain = 0
KTA1 062032Z 19004KT 20/15 A2997 RMK A01 T02040148  RH  070%=      5-min Rain = 0
KTA1 062033Z 21006KT 21/15 A2997 RMK A01 T02060147  RH  069%=      5-min Rain = 0
KTA1 062034Z 20007KT 21/15 A2997 RMK A01 T02070145  RH  068%=      5-min Rain = 0
KTA1 062035Z 21008KT 21/15 A2997 RMK A01 T02080145  RH  067%=      5-min Rain = 0
KTA1 062036Z 22007KT 21/14 A2997 RMK A01 T02080144  RH  066%=      5-min Rain = 0
KTA1 062037Z 21005KT 21/14 A2997 RMK A01 T02080143  RH  066%=      5-min Rain = 0
KTA1 062038Z 22007KT 21/15 A2997 RMK A01 T02080146  RH  067%=      5-min Rain = 0
KTA1 062039Z 21005KT 21/14 A2997 RMK A01 T02090144  RH  066%=      5-min Rain = 0
KTA1 062040Z 20004KT 21/15 A2997 RMK A01 T02090146  RH  067%=      5-min Rain = 0
KTA1 062041Z 19003KT 21/15 A2996 RMK A01 T02090145  RH  066%=      5-min Rain = 0
KTA1 062042Z 19005KT 21/15 A2996 RMK A01 T02100146  RH  067%=      5-min Rain = 0
KTA1 062043Z 19008KT 21/15 A2996 RMK A01 T02100145  RH  066%=      5-min Rain = 0
KTA1 062044Z 20008KT 21/14 A2996 RMK A01 T02090143  RH  066%=      5-min Rain = 0
KTA1 062045Z 21006KT 21/14 A2996 RMK A01 T02080143  RH  066%=      5-min Rain = 0
KTA1 062046Z 20006KT 21/14 A2996 RMK A01 T02080143  RH  066%=      5-min Rain = 0
KTA1 062047Z 21006KT 21/14 A2996 RMK A01 T02070143  RH  066%=      5-min Rain = 0
KTA1 062048Z 23007KT 21/14 A2996 RMK A01 T02080144  RH  067%=      5-min Rain = 0
KTA1 062049Z 22006KT 21/14 A2996 RMK A01 T02080144  RH  067%=      5-min Rain = 0
KTA1 062050Z 21005KT 21/15 A2996 RMK A01 T02080145  RH  067%=      5-min Rain = 0
KTA1 062051Z 20006KT 21/15 A2996 RMK A01 T02080145  RH  067%=      5-min Rain = 0
KTA1 062052Z 17006KT 21/15 A2996 RMK A01 T02100146  RH  067%=      5-min Rain = 0
KTA1 062053Z 16006KT 21/15 A2996 RMK A01 T02120146  RH  066%=      5-min Rain = 0
KTA1 062054Z 18006KT 21/15 A2996 RMK A01 T02130146  RH  066%=      5-min Rain = 0
KTA1 062055Z 19008KT 21/15 A2996 RMK A01 T02140146  RH  065%=      5-min Rain = 0
KTA1 062056Z 18006KT 22/15 A2996 RMK A01 T02150146  RH  064%=      5-min Rain = 0
KTA1 062057Z 21005KT 22/15 A2996 RMK A01 T02160145  RH  064%=      5-min Rain = 0
KTA1 062058Z 23006KT 22/14 A2996 RMK A01 T02160143  RH  063%=      5-min Rain = 0
KTA1 062059Z 20007KT 22/14 A2996 RMK A01 T02170143  RH  063%=      5-min Rain = 0
KTA1 062100Z 20006KT 22/14 A2996 RMK A01 T02170141  RH  062%=      5-min Rain = 0
KTA1 062101Z 20004KT 21/14 A2996 RMK A01 T02140140  RH  063%=      5-min Rain = 0
KTA1 062102Z 18006KT 21/14 A2996 RMK A01 T02130142  RH  064%=      5-min Rain = 0
KTA1 062103Z 19008KT 21/14 A2996 RMK A01 T02140142  RH  063%=      5-min Rain = 0
KTA1 062104Z 19006KT 21/14 A2996 RMK A01 T02140142  RH  063%=      5-min Rain = 0
KTA1 062105Z 20007KT 21/14 A2996 RMK A01 T02140142  RH  063%=      5-min Rain = 0
KTA1 062106Z 20007KT 21/14 A2995 RMK A01 T02140143  RH  064%=      5-min Rain = 0
KTA1 062107Z 20006KT 22/14 A2995 RMK A01 T02160144  RH  063%=      5-min Rain = 0
KTA1 062108Z 20008KT 22/14 A2995 RMK A01 T02170141  RH  062%=      5-min Rain = 0
KTA1 062109Z 21009KT 22/14 A2995 RMK A01 T02160140  RH  062%=      5-min Rain = 0
KTA1 062110Z 19006KT 22/14 A2995 RMK A01 T02150141  RH  063%=      5-min Rain = 0
KTA1 062111Z 17004KT 21/14 A2995 RMK A01 T02140140  RH  062%=      5-min Rain = 0
KTA1 062112Z 17005KT 21/14 A2995 RMK A01 T02130140  RH  063%=      5-min Rain = 0
KTA1 062113Z 19004KT 21/14 A2995 RMK A01 T02130140  RH  063%=      5-min Rain = 0
KTA1 062114Z 20007KT 21/14 A2995 RMK A01 T02130140  RH  063%=      5-min Rain = 0
KTA1 062115Z 20008KT 21/14 A2995 RMK A01 T02140138  RH  062%=      5-min Rain = 0
KTA1 062116Z 20006KT 22/14 A2995 RMK A01 T02150137  RH  061%=      5-min Rain = 0
KTA1 062117Z 20005KT 22/14 A2995 RMK A01 T02160139  RH  061%=      5-min Rain = 0
KTA1 062118Z 21008KT 22/14 A2995 RMK A01 T02190138  RH  060%=      5-min Rain = 0
KTA1 062119Z 20007KT 22/14 A2995 RMK A01 T02200141  RH  061%=      5-min Rain = 0
KTA1 062120Z 18008KT 22/14 A2995 RMK A01 T02210143  RH  061%=      5-min Rain = 0
KTA1 062121Z 17009KT 22/14 A2995 RMK A01 T02230141  RH  060%=      5-min Rain = 0
KTA1 062122Z 17006KT 23/14 A2995 RMK A01 T02250143  RH  060%=      5-min Rain = 0
KTA1 062123Z 17008KT 23/14 A2995 RMK A01 T02260141  RH  059%=      5-min Rain = 0
KTA1 062124Z 19008KT 23/14 A2995 RMK A01 T02250143  RH  060%=      5-min Rain = 0
KTA1 062125Z 20007KT 22/14 A2995 RMK A01 T02240142  RH  060%=      5-min Rain = 0
KTA1 062126Z 19007KT 22/14 A2995 RMK A01 T02240141  RH  060%=      5-min Rain = 0
KTA1 062127Z 19006KT 22/14 A2995 RMK A01 T02210140  RH  060%=      5-min Rain = 0
KTA1 062128Z 20008KT 22/14 A2995 RMK A01 T02200140  RH  061%=      5-min Rain = 0
KTA1 062129Z 20008KT 22/14 A2995 RMK A01 T02190140  RH  061%=      5-min Rain = 0
KTA1 062130Z 21008KT 22/14 A2995 RMK A01 T02190139  RH  060%=      5-min Rain = 0
KTA1 062131Z 19006KT 22/14 A2995 RMK A01 T02180139  RH  061%=      5-min Rain = 0
KTA1 062132Z 20006KT 22/14 A2995 RMK A01 T02180139  RH  061%=      5-min Rain = 0
KTA1 062133Z 20005KT 22/14 A2994 RMK A01 T02170139  RH  061%=      5-min Rain = 0
KTA1 062134Z 18008KT 22/14 A2994 RMK A01 T02170140  RH  062%=      5-min Rain = 0
KTA1 062135Z 19007KT 22/14 A2994 RMK A01 T02170140  RH  061%=      5-min Rain = 0
KTA1 062136Z 20007KT 22/14 A2994 RMK A01 T02180141  RH  061%=      5-min Rain = 0
KTA1 062137Z 23007KT 22/14 A2994 RMK A01 T02200140  RH  060%=      5-min Rain = 0
KTA1 062138Z 24006KT 22/14 A2994 RMK A01 T02220142  RH  060%=      5-min Rain = 0
KTA1 062139Z 23006KT 23/14 A2994 RMK A01 T02250142  RH  059%=      5-min Rain = 0
KTA1 062140Z 26004KT 23/14 A2994 RMK A01 T02260140  RH  058%=      5-min Rain = 0
KTA1 062141Z 25005KT 23/14 A2994 RMK A01 T02260142  RH  059%=      5-min Rain = 0
KTA1 062142Z 22006KT 23/15 A2994 RMK A01 T02270145  RH  060%=      5-min Rain = 0
KTA1 062143Z 23006KT 23/14 A2994 RMK A01 T02270141  RH  058%=      5-min Rain = 0
KTA1 062144Z 18006KT 23/14 A2994 RMK A01 T02250143  RH  059%=      5-min Rain = 0
KTA1 062145Z 17007KT 23/14 A2994 RMK A01 T02270141  RH  058%=      5-min Rain = 0
KTA1 062146Z 18008KT 23/14 A2994 RMK A01 T02290140  RH  057%=      5-min Rain = 0
KTA1 062147Z 18008KT 23/14 A2994 RMK A01 T02270140  RH  058%=      5-min Rain = 0
KTA1 062148Z 17007KT 23/14 A2994 RMK A01 T02260141  RH  058%=      5-min Rain = 0
KTA1 062149Z 17007KT 23/14 A2994 RMK A01 T02290140  RH  057%=      5-min Rain = 0
KTA1 062150Z 19005KT 23/14 A2994 RMK A01 T02290140  RH  057%=      5-min Rain = 0
KTA1 062151Z 19004KT 23/14 A2994 RMK A01 T02280140  RH  058%=      5-min Rain = 0
KTA1 062152Z 18004KT 23/14 A2994 RMK A01 T02270140  RH  058%=      5-min Rain = 0
KTA1 062153Z 18005KT 23/14 A2994 RMK A01 T02260139  RH  058%=      5-min Rain = 0
KTA1 062154Z 17005KT 23/14 A2994 RMK A01 T02260142  RH  059%=      5-min Rain = 0
KTA1 062155Z 19006KT 23/14 A2994 RMK A01 T02280141  RH  058%=      5-min Rain = 0
KTA1 062156Z 16007KT 23/14 A2993 RMK A01 T02280141  RH  058%=      5-min Rain = 0
KTA1 062157Z 16008KT 23/14 A2993 RMK A01 T02270141  RH  058%=      5-min Rain = 0
KTA1 062158Z 18007KT 23/14 A2993 RMK A01 T02280142  RH  058%=      5-min Rain = 0
KTA1 062159Z 17006KT 23/14 A2993 RMK A01 T02290142  RH  058%=      5-min Rain = 0
KTA1 062200Z 16008KT 23/14 A2993 RMK A01 T02320143  RH  057%=      5-min Rain = 0
KTA1 062201Z 14005KT 23/14 A2993 RMK A01 T02320140  RH  056%=      5-min Rain = 0
KTA1 062202Z 15005KT 23/14 A2993 RMK A01 T02290140  RH  057%=      5-min Rain = 0
KTA1 062203Z 23005KT 23/14 A2993 RMK A01 T02280140  RH  058%=      5-min Rain = 0
KTA1 062204Z 21007KT 23/14 A2993 RMK A01 T02260140  RH  058%=      5-min Rain = 0
KTA1 062205Z 22009KT 23/14 A2993 RMK A01 T02260140  RH  058%=      5-min Rain = 0
KTA1 062206Z 20008KT 23/14 A2993 RMK A01 T02280141  RH  058%=      5-min Rain = 0
KTA1 062207Z 18007KT 23/14 A2993 RMK A01 T02300138  RH  056%=      5-min Rain = 0
KTA1 062208Z 18006KT 23/14 A2993 RMK A01 T02290138  RH  056%=      5-min Rain = 0
KTA1 062209Z 18008KT 23/14 A2993 RMK A01 T02280139  RH  057%=      5-min Rain = 0
KTA1 062210Z 19006KT 23/14 A2993 RMK A01 T02280141  RH  058%=      5-min Rain = 0
KTA1 062211Z 21009KT 23/14 A2993 RMK A01 T02280141  RH  058%=      5-min Rain = 0
KTA1 062212Z 19005KT 23/14 A2993 RMK A01 T02270140  RH  058%=      5-min Rain = 0
KTA1 062213Z 19006KT 23/14 A2993 RMK A01 T02260139  RH  058%=      5-min Rain = 0
KTA1 062214Z 19008KT 23/14 A2993 RMK A01 T02260142  RH  059%=      5-min Rain = 0
KTA1 062215Z 19008KT 23/14 A2993 RMK A01 T02300141  RH  057%=      5-min Rain = 0
KTA1 062216Z 20006KT 23/14 A2994 RMK A01 T02310140  RH  057%=      5-min Rain = 0
KTA1 062217Z 21004KT 23/14 A2994 RMK A01 T02300142  RH  058%=      5-min Rain = 0
KTA1 062218Z 18005KT 23/14 A2994 RMK A01 T02320142  RH  057%=      5-min Rain = 0
KTA1 062219Z 18008KT 23/14 A2994 RMK A01 T02340142  RH  056%=      5-min Rain = 0
KTA1 062220Z 18007KT 24/14 A2994 RMK A01 T02350141  RH  056%=      5-min Rain = 0
KTA1 062221Z 16006KT 23/14 A2994 RMK A01 T02330140  RH  056%=      5-min Rain = 0
KTA1 062222Z 17007KT 23/14 A2994 RMK A01 T02320141  RH  057%=      5-min Rain = 0
KTA1 062223Z 18006KT 23/14 A2994 RMK A01 T02320141  RH  057%=      5-min Rain = 0
KTA1 062224Z 18009KT 23/14 A2994 RMK A01 T02320141  RH  056%=      5-min Rain = 0
KTA1 062225Z 19011KT 23/14 A2994 RMK A01 T02310141  RH  057%=      5-min Rain = 0
KTA1 062226Z 19008KT 23/14 A2994 RMK A01 T02310140  RH  056%=      5-min Rain = 0
KTA1 062227Z 19006KT 23/14 A2994 RMK A01 T02300139  RH  057%=      5-min Rain = 0
KTA1 062228Z 21005KT 23/14 A2994 RMK A01 T02290139  RH  057%=      5-min Rain = 0
KTA1 062229Z 21005KT 23/14 A2994 RMK A01 T02280139  RH  057%=      5-min Rain = 0
KTA1 062230Z 22009KT 23/14 A2994 RMK A01 T02290141  RH  057%=      5-min Rain = 0
KTA1 062231Z 22008KT 23/14 A2994 RMK A01 T02300139  RH  056%=      5-min Rain = 0
KTA1 062232Z 21007KT 23/14 A2994 RMK A01 T02310139  RH  056%=      5-min Rain = 0
KTA1 062233Z 21006KT 23/14 A2994 RMK A01 T02320139  RH  056%=      5-min Rain = 0
KTA1 062234Z 20007KT 23/14 A2994 RMK A01 T02330140  RH  056%=      5-min Rain = 0
KTA1 062235Z 18008KT 23/14 A2994 RMK A01 T02320143  RH  057%=      5-min Rain = 0
KTA1 062236Z 18009KT 23/14 A2994 RMK A01 T02320143  RH  057%=      5-min Rain = 0
KTA1 062237Z 19007KT 23/14 A2994 RMK A01 T02300142  RH  057%=      5-min Rain = 0
KTA1 062238Z 21008KT 23/14 A2994 RMK A01 T02300141  RH  057%=      5-min Rain = 0
KTA1 062239Z 22006KT 23/14 A2994 RMK A01 T02310140  RH  057%=      5-min Rain = 0
KTA1 062240Z 19007KT 23/14 A2994 RMK A01 T02310142  RH  057%=      5-min Rain = 0
KTA1 062241Z 19009KT 23/14 A2994 RMK A01 T02320143  RH  057%=      5-min Rain = 0
KTA1 062242Z 18009KT 23/14 A2994 RMK A01 T02310143  RH  058%=      5-min Rain = 0
KTA1 062243Z 18010KT 23/14 A2994 RMK A01 T02300143  RH  058%=      5-min Rain = 0
KTA1 062244Z 18007KT 23/14 A2994 RMK A01 T02290143  RH  058%=      5-min Rain = 0
KTA1 062245Z 16006KT 23/14 A2994 RMK A01 T02280144  RH  059%=      5-min Rain = 0
KTA1 062246Z 17007KT 23/14 A2994 RMK A01 T02280144  RH  059%=      5-min Rain = 0
KTA1 062247Z 18005KT 23/14 A2994 RMK A01 T02290144  RH  059%=      5-min Rain = 0
KTA1 062248Z 17007KT 23/14 A2994 RMK A01 T02290144  RH  059%=      5-min Rain = 0
KTA1 062249Z 20008KT 23/14 A2994 RMK A01 T02290144  RH  059%=      5-min Rain = 0
KTA1 062250Z 19006KT 23/14 A2994 RMK A01 T02300143  RH  058%=      5-min Rain = 0
KTA1 062251Z 18005KT 23/15 A2994 RMK A01 T02300145  RH  059%=      5-min Rain = 0
KTA1 062252Z 17004KT 23/15 A2994 RMK A01 T02320145  RH  058%=      5-min Rain = 0
KTA1 062253Z 19007KT 23/15 A2994 RMK A01 T02340145  RH  057%=      5-min Rain = 0
KTA1 062254Z 20007KT 23/14 A2994 RMK A01 T02330143  RH  057%=      5-min Rain = 0
KTA1 062255Z 20009KT 23/14 A2994 RMK A01 T02320143  RH  057%=      5-min Rain = 0
KTA1 062256Z 20010KT 23/14 A2994 RMK A01 T02330141  RH  056%=      5-min Rain = 0
KTA1 062257Z 20009KT 23/14 A2994 RMK A01 T02310141  RH  057%=      5-min Rain = 0
KTA1 062258Z 20009KT 23/14 A2994 RMK A01 T02310142  RH  058%=      5-min Rain = 0
KTA1 062259Z 19007KT 23/14 A2994 RMK A01 T02300142  RH  058%=      5-min Rain = 0
KTA1 062300Z 20007KT 23/14 A2994 RMK A01 T02310144  RH  058%=      5-min Rain = 0
KTA1 062301Z 20008KT 23/15 A2994 RMK A01 T02330145  RH  058%=      5-min Rain = 0
KTA1 062302Z 20008KT 23/14 A2994 RMK A01 T02340144  RH  057%=      5-min Rain = 0
KTA1 062303Z 19010KT 23/14 A2994 RMK A01 T02340142  RH  056%=      5-min Rain = 0
KTA1 062304Z 20009KT 23/14 A2994 RMK A01 T02320142  RH  057%=      5-min Rain = 0
KTA1 062305Z 19009KT 23/14 A2994 RMK A01 T02310141  RH  057%=      5-min Rain = 0
KTA1 062306Z 21009KT 23/14 A2994 RMK A01 T02300141  RH  057%=      5-min Rain = 0
KTA1 062307Z 20009KT 23/14 A2994 RMK A01 T02300141  RH  057%=      5-min Rain = 0
KTA1 062308Z 19008KT 23/14 A2994 RMK A01 T02300141  RH  057%=      5-min Rain = 0
KTA1 062309Z 20008KT 23/14 A2994 RMK A01 T02290139  RH  057%=      5-min Rain = 0
KTA1 062310Z 20007KT 23/14 A2994 RMK A01 T02290138  RH  057%=      5-min Rain = 0
KTA1 062311Z 21006KT 23/14 A2994 RMK A01 T02280139  RH  057%=      5-min Rain = 0
KTA1 062312Z 21006KT 23/14 A2994 RMK A01 T02290140  RH  057%=      5-min Rain = 0
KTA1 062313Z 21007KT 23/14 A2994 RMK A01 T02290141  RH  058%=      5-min Rain = 0
KTA1 062314Z 21006KT 23/14 A2994 RMK A01 T02290140  RH  057%=      5-min Rain = 0
KTA1 062315Z 22007KT 23/14 A2994 RMK A01 T02300140  RH  057%=      5-min Rain = 0
KTA1 062316Z 22007KT 23/14 A2994 RMK A01 T02300139  RH  056%=      5-min Rain = 0
KTA1 062317Z 19008KT 23/14 A2994 RMK A01 T02300141  RH  057%=      5-min Rain = 0
KTA1 062318Z 18007KT 23/14 A2994 RMK A01 T02300142  RH  058%=      5-min Rain = 0
KTA1 062319Z 18007KT 23/14 A2994 RMK A01 T02290142  RH  058%=      5-min Rain = 0
KTA1 062320Z 18007KT 23/14 A2994 RMK A01 T02290141  RH  058%=      5-min Rain = 0
KTA1 062321Z 18007KT 23/14 A2994 RMK A01 T02290141  RH  058%=      5-min Rain = 0
KTA1 062322Z 18007KT 23/14 A2994 RMK A01 T02280140  RH  057%=      5-min Rain = 0
KTA1 062323Z 20007KT 23/14 A2994 RMK A01 T02280141  RH  058%=      5-min Rain = 0
KTA1 062324Z 21008KT 23/14 A2994 RMK A01 T02280141  RH  058%=      5-min Rain = 0
KTA1 062325Z 20009KT 23/14 A2994 RMK A01 T02280141  RH  058%=      5-min Rain = 0
KTA1 062326Z 20008KT 23/14 A2994 RMK A01 T02280140  RH  058%=      5-min Rain = 0
KTA1 062327Z 20008KT 23/14 A2994 RMK A01 T02270139  RH  057%=      5-min Rain = 0
KTA1 062328Z 19006KT 23/14 A2994 RMK A01 T02270140  RH  058%=      5-min Rain = 0
KTA1 062329Z 19008KT 23/14 A2994 RMK A01 T02270140  RH  058%=      5-min Rain = 0
KTA1 062330Z 19008KT 23/14 A2994 RMK A01 T02280139  RH  057%=      5-min Rain = 0
KTA1 062331Z 18009KT 23/14 A2994 RMK A01 T02280138  RH  057%=      5-min Rain = 0
KTA1 062332Z 19010KT 23/14 A2994 RMK A01 T02280138  RH  057%=      5-min Rain = 0
KTA1 062333Z 19008KT 23/14 A2995 RMK A01 T02270138  RH  057%=      5-min Rain = 0
KTA1 062334Z 19008KT 23/14 A2995 RMK A01 T02270138  RH  057%=      5-min Rain = 0
KTA1 062335Z 18009KT 23/14 A2995 RMK A01 T02280138  RH  057%=      5-min Rain = 0
KTA1 062336Z 18009KT 23/14 A2995 RMK A01 T02280137  RH  056%=      5-min Rain = 0
KTA1 062337Z 18009KT 23/14 A2995 RMK A01 T02270136  RH  056%=      5-min Rain = 0
KTA1 062338Z 17009KT 23/14 A2995 RMK A01 T02270136  RH  056%=      5-min Rain = 0
KTA1 062339Z 18009KT 23/14 A2995 RMK A01 T02270137  RH  057%=      5-min Rain = 0
KTA1 062340Z 17010KT 23/14 A2995 RMK A01 T02270136  RH  056%=      5-min Rain = 0
KTA1 062341Z 18009KT 23/14 A2995 RMK A01 T02270137  RH  057%=      5-min Rain = 0
KTA1 062342Z 18009KT 23/14 A2995 RMK A01 T02270137  RH  057%=      5-min Rain = 0
KTA1 062343Z 18008KT 23/14 A2995 RMK A01 T02270137  RH  056%=      5-min Rain = 0
KTA1 062344Z 18009KT 23/14 A2995 RMK A01 T02280135  RH  056%=      5-min Rain = 0
KTA1 062345Z 18009KT 23/13 A2995 RMK A01 T02270134  RH  055%=      5-min Rain = 0
KTA1 062346Z 18010KT 23/13 A2995 RMK A01 T02270134  RH  056%=      5-min Rain = 0
KTA1 062347Z 18007KT 23/14 A2995 RMK A01 T02270136  RH  056%=      5-min Rain = 0
KTA1 062348Z 18008KT 23/14 A2995 RMK A01 T02270136  RH  057%=      5-min Rain = 0
KTA1 062349Z 18008KT 23/14 A2995 RMK A01 T02270137  RH  057%=      5-min Rain = 0
KTA1 062350Z 18010KT 23/14 A2995 RMK A01 T02260136  RH  057%=      5-min Rain = 0
KTA1 062351Z 18009KT 23/14 A2995 RMK A01 T02270137  RH  057%=      5-min Rain = 0
KTA1 062352Z 18010KT 23/14 A2995 RMK A01 T02260137  RH  057%=      5-min Rain = 0
KTA1 062353Z 18010KT 23/14 A2994 RMK A01 T02260136  RH  057%=      5-min Rain = 0
KTA1 062354Z 18009KT 23/14 A2994 RMK A01 T02260137  RH  057%=      5-min Rain = 0
KTA1 062355Z 18008KT 23/14 A2994 RMK A01 T02250137  RH  057%=      5-min Rain = 0
KTA1 062356Z 18007KT 23/14 A2994 RMK A01 T02250137  RH  057%=      5-min Rain = 0
KTA1 062357Z 17007KT 23/14 A2994 RMK A01 T02250137  RH  057%=      5-min Rain = 0
KTA1 062358Z 18008KT 23/14 A2994 RMK A01 T02260138  RH  058%=      5-min Rain = 0
KTA1 062359Z 18008KT 23/14 A2994 RMK A01 T02250136  RH  057%=      5-min Rain = 0
KTA1 070000Z 18008KT 23/13 A2994 RMK A01 T02250134  RH  056%=      5-min Rain = 0
KTA1 070001Z 19008KT 23/13 A2994 RMK A01 T02250133  RH  056%=      5-min Rain = 0
KTA1 070002Z 19008KT 23/13 A2994 RMK A01 T02250133  RH  056%=      5-min Rain = 0
KTA1 070003Z 18007KT 23/13 A2994 RMK A01 T02250133  RH  056%=      5-min Rain = 0
KTA1 070004Z 18006KT 23/13 A2994 RMK A01 T02250134  RH  056%=      5-min Rain = 0
KTA1 070005Z 19006KT 23/13 A2994 RMK A01 T02250134  RH  056%=      5-min Rain = 0
KTA1 070006Z 18007KT 23/13 A2994 RMK A01 T02250134  RH  056%=      5-min Rain = 0
KTA1 070007Z 18007KT 23/13 A2994 RMK A01 T02250133  RH  056%=      5-min Rain = 0
KTA1 070008Z 18008KT 23/13 A2994 RMK A01 T02250134  RH  056%=      5-min Rain = 0
KTA1 070009Z 18007KT 23/13 A2994 RMK A01 T02250133  RH  056%=      5-min Rain = 0
KTA1 070010Z 18006KT 22/13 A2994 RMK A01 T02240134  RH  057%=      5-min Rain = 0
KTA1 070011Z 18008KT 22/13 A2994 RMK A01 T02240134  RH  057%=      5-min Rain = 0
KTA1 070012Z 18007KT 22/14 A2994 RMK A01 T02240135  RH  057%=      5-min Rain = 0
KTA1 070013Z 18007KT 22/14 A2994 RMK A01 T02240136  RH  057%=      5-min Rain = 0
KTA1 070014Z 18007KT 22/14 A2994 RMK A01 T02230137  RH  058%=      5-min Rain = 0
KTA1 070015Z 18007KT 22/14 A2994 RMK A01 T02240137  RH  058%=      5-min Rain = 0
KTA1 070016Z 18008KT 22/14 A2994 RMK A01 T02230137  RH  058%=      5-min Rain = 0
KTA1 070017Z 18007KT 22/14 A2994 RMK A01 T02230136  RH  058%=      5-min Rain = 0
KTA1 070018Z 18007KT 22/14 A2994 RMK A01 T02230137  RH  058%=      5-min Rain = 0
KTA1 070019Z 18006KT 22/14 A2994 RMK A01 T02230137  RH  058%=      5-min Rain = 0
KTA1 070020Z 18006KT 22/14 A2994 RMK A01 T02230138  RH  059%=      5-min Rain = 0
KTA1 070021Z 18006KT 22/14 A2994 RMK A01 T02220138  RH  059%=      5-min Rain = 0
KTA1 070022Z 18006KT 22/14 A2994 RMK A01 T02220138  RH  059%=      5-min Rain = 0
KTA1 070023Z 18005KT 22/14 A2994 RMK A01 T02220138  RH  059%=      5-min Rain = 0
KTA1 070024Z 17006KT 22/14 A2994 RMK A01 T02210137  RH  059%=      5-min Rain = 0
KTA1 070025Z 18005KT 22/14 A2994 RMK A01 T02210137  RH  059%=      5-min Rain = 0
KTA1 070026Z 17005KT 22/14 A2994 RMK A01 T02210137  RH  059%=      5-min Rain = 0
KTA1 070027Z 18006KT 22/14 A2994 RMK A01 T02210137  RH  059%=      5-min Rain = 0
KTA1 070028Z 18005KT 22/14 A2994 RMK A01 T02210137  RH  059%=      5-min Rain = 0
KTA1 070029Z 18004KT 22/14 A2994 RMK A01 T02200137  RH  059%=      5-min Rain = 0
KTA1 070030Z 18003KT 22/14 A2994 RMK A01 T02200138  RH  060%=      5-min Rain = 0
KTA1 070031Z 17004KT 22/14 A2994 RMK A01 T02200137  RH  060%=      5-min Rain = 0
KTA1 070032Z 17005KT 22/14 A2994 RMK A01 T02200138  RH  060%=      5-min Rain = 0
KTA1 070033Z 17005KT 22/14 A2994 RMK A01 T02200138  RH  060%=      5-min Rain = 0
KTA1 070034Z 17005KT 22/14 A2994 RMK A01 T02190137  RH  060%=      5-min Rain = 0
KTA1 070035Z 17005KT 22/14 A2994 RMK A01 T02190138  RH  060%=      5-min Rain = 0
KTA1 070036Z 17004KT 22/14 A2994 RMK A01 T02190138  RH  060%=      5-min Rain = 0
KTA1 070037Z 17004KT 22/14 A2994 RMK A01 T02190139  RH  060%=      5-min Rain = 0
KTA1 070038Z 17004KT 22/14 A2994 RMK A01 T02180138  RH  060%=      5-min Rain = 0
KTA1 070039Z 16004KT 22/14 A2994 RMK A01 T02180139  RH  060%=      5-min Rain = 0
KTA1 070040Z 17004KT 22/14 A2994 RMK A01 T02180139  RH  061%=      5-min Rain = 0
KTA1 070041Z 17004KT 22/14 A2994 RMK A01 T02180139  RH  061%=      5-min Rain = 0
KTA1 070042Z 17004KT 22/14 A2994 RMK A01 T02170139  RH  061%=      5-min Rain = 0
KTA1 070043Z 17004KT 22/14 A2994 RMK A01 T02170139  RH  061%=      5-min Rain = 0
KTA1 070044Z 18003KT 22/14 A2994 RMK A01 T02170139  RH  061%=      5-min Rain = 0
KTA1 070045Z 18004KT 22/14 A2994 RMK A01 T02170139  RH  061%=      5-min Rain = 0
KTA1 070046Z 17003KT 22/14 A2994 RMK A01 T02160139  RH  061%=      5-min Rain = 0
KTA1 070047Z 17004KT 22/14 A2994 RMK A01 T02160139  RH  061%=      5-min Rain = 0
KTA1 070048Z 17005KT 22/14 A2994 RMK A01 T02160139  RH  062%=      5-min Rain = 0
KTA1 070049Z 17005KT 22/14 A2994 RMK A01 T02150139  RH  062%=      5-min Rain = 0
KTA1 070050Z 16007KT 22/14 A2994 RMK A01 T02150140  RH  062%=      5-min Rain = 0
KTA1 070051Z 15005KT 22/14 A2994 RMK A01 T02150140  RH  062%=      5-min Rain = 0
KTA1 070052Z 15004KT 22/14 A2994 RMK A01 T02150140  RH  062%=      5-min Rain = 0
KTA1 070053Z 15004KT 21/14 A2994 RMK A01 T02140140  RH  063%=      5-min Rain = 0
KTA1 070054Z 15005KT 21/14 A2994 RMK A01 T02140141  RH  063%=      5-min Rain = 0
KTA1 070055Z 15005KT 21/14 A2994 RMK A01 T02130141  RH  063%=      5-min Rain = 0
KTA1 070056Z 16006KT 21/14 A2994 RMK A01 T02120141  RH  064%=      5-min Rain = 0
KTA1 070057Z 16007KT 21/14 A2994 RMK A01 T02120143  RH  065%=      5-min Rain = 0
KTA1 070058Z 17006KT 21/15 A2994 RMK A01 T02120145  RH  065%=      5-min Rain = 0
KTA1 070059Z 17008KT 21/15 A2994 RMK A01 T02120146  RH  066%=      5-min Rain = 0
KTA1 070100Z 16007KT 21/15 A2994 RMK A01 T02120147  RH  066%=      5-min Rain = 0
KTA1 070101Z 17007KT 21/15 A2994 RMK A01 T02120147  RH  066%=      5-min Rain = 0
KTA1 070102Z 17008KT 21/15 A2994 RMK A01 T02120147  RH  066%=      5-min Rain = 0
KTA1 070103Z 17009KT 21/15 A2994 RMK A01 T02120146  RH  066%=      5-min Rain = 0
KTA1 070104Z 17008KT 21/15 A2994 RMK A01 T02120146  RH  066%=      5-min Rain = 0
KTA1 070105Z 17007KT 21/15 A2994 RMK A01 T02120146  RH  066%=      5-min Rain = 0
KTA1 070106Z 17008KT 21/15 A2994 RMK A01 T02120146  RH  066%=      5-min Rain = 0
KTA1 070107Z 17006KT 21/15 A2994 RMK A01 T02120146  RH  066%=      5-min Rain = 0
KTA1 070108Z 17007KT 21/15 A2995 RMK A01 T02110146  RH  066%=      5-min Rain = 0
KTA1 070109Z 17007KT 21/15 A2995 RMK A01 T02110147  RH  067%=      5-min Rain = 0
KTA1 070110Z 16006KT 21/15 A2995 RMK A01 T02100147  RH  067%=      5-min Rain = 0
KTA1 070111Z 17007KT 21/15 A2995 RMK A01 T02100147  RH  067%=      5-min Rain = 0
KTA1 070112Z 16007KT 21/15 A2995 RMK A01 T02100147  RH  067%=      5-min Rain = 0
KTA1 070113Z 17006KT 21/15 A2995 RMK A01 T02100148  RH  068%=      5-min Rain = 0
KTA1 070114Z 17007KT 21/15 A2995 RMK A01 T02090148  RH  068%=      5-min Rain = 0
KTA1 070115Z 17006KT 21/15 A2995 RMK A01 T02090148  RH  068%=      5-min Rain = 0
KTA1 070116Z 17006KT 21/15 A2995 RMK A01 T02090148  RH  068%=      5-min Rain = 0
KTA1 070117Z 17007KT 21/15 A2995 RMK A01 T02090148  RH  068%=      5-min Rain = 0
KTA1 070118Z 17006KT 21/15 A2995 RMK A01 T02080148  RH  069%=      5-min Rain = 0
KTA1 070119Z 17007KT 21/15 A2995 RMK A01 T02080149  RH  069%=      5-min Rain = 0
KTA1 070120Z 17006KT 21/15 A2995 RMK A01 T02070148  RH  069%=      5-min Rain = 0
KTA1 070121Z 17007KT 21/15 A2995 RMK A01 T02070149  RH  069%=      5-min Rain = 0
KTA1 070122Z 17006KT 21/15 A2995 RMK A01 T02070149  RH  069%=      5-min Rain = 0
KTA1 070123Z 17006KT 21/15 A2995 RMK A01 T02060149  RH  069%=      5-min Rain = 0
KTA1 070124Z 17006KT 21/15 A2995 RMK A01 T02060149  RH  070%=      5-min Rain = 0
KTA1 070125Z 17006KT 21/15 A2995 RMK A01 T02060149  RH  070%=      5-min Rain = 0
KTA1 070126Z 17006KT 21/15 A2995 RMK A01 T02050149  RH  070%=      5-min Rain = 0
KTA1 070127Z 17006KT 21/15 A2995 RMK A01 T02050149  RH  070%=      5-min Rain = 0
KTA1 070128Z 16006KT 20/15 A2995 RMK A01 T02040149  RH  070%=      5-min Rain = 0
KTA1 070129Z 17005KT 20/15 A2995 RMK A01 T02040149  RH  071%=      5-min Rain = 0
KTA1 070130Z 16007KT 20/15 A2995 RMK A01 T02040149  RH  071%=      5-min Rain = 0
KTA1 070131Z 16007KT 20/15 A2995 RMK A01 T02040149  RH  071%=      5-min Rain = 0
KTA1 070132Z 16006KT 20/15 A2995 RMK A01 T02040149  RH  071%=      5-min Rain = 0
KTA1 070133Z 17007KT 20/15 A2995 RMK A01 T02040149  RH  071%=      5-min Rain = 0
KTA1 070134Z 17007KT 20/15 A2995 RMK A01 T02040149  RH  071%=      5-min Rain = 0
KTA1 070135Z 16007KT 20/15 A2995 RMK A01 T02040149  RH  071%=      5-min Rain = 0
KTA1 070136Z 17007KT 20/15 A2995 RMK A01 T02040149  RH  071%=      5-min Rain = 0
KTA1 070137Z 17007KT 20/15 A2995 RMK A01 T02030149  RH  071%=      5-min Rain = 0
KTA1 070138Z 17007KT 20/15 A2995 RMK A01 T02030149  RH  071%=      5-min Rain = 0
KTA1 070139Z 16008KT 20/15 A2995 RMK A01 T02030149  RH  071%=      5-min Rain = 0
KTA1 070140Z 17007KT 20/15 A2995 RMK A01 T02030149  RH  071%=      5-min Rain = 0
KTA1 070141Z 17007KT 20/15 A2995 RMK A01 T02030149  RH  071%=      5-min Rain = 0
KTA1 070142Z 17007KT 20/15 A2996 RMK A01 T02020148  RH  071%=      5-min Rain = 0
KTA1 070143Z 17007KT 20/15 A2996 RMK A01 T02020149  RH  071%=      5-min Rain = 0
KTA1 070144Z 17007KT 20/15 A2996 RMK A01 T02020149  RH  072%=      5-min Rain = 0
KTA1 070145Z 17007KT 20/15 A2996 RMK A01 T02010149  RH  072%=      5-min Rain = 0
KTA1 070146Z 17007KT 20/15 A2996 RMK A01 T02010149  RH  072%=      5-min Rain = 0
KTA1 070147Z 17007KT 20/15 A2996 RMK A01 T02000148  RH  072%=      5-min Rain = 0
KTA1 070148Z 17007KT 20/15 A2996 RMK A01 T01990148  RH  072%=      5-min Rain = 0
KTA1 070149Z 17007KT 20/15 A2996 RMK A01 T01990148  RH  072%=      5-min Rain = 0
KTA1 070150Z 17007KT 20/15 A2996 RMK A01 T01990146  RH  071%=      5-min Rain = 0
KTA1 070151Z 17007KT 20/15 A2996 RMK A01 T01990146  RH  071%=      5-min Rain = 0
KTA1 070152Z 17007KT 20/15 A2996 RMK A01 T01990145  RH  071%=      5-min Rain = 0
KTA1 070153Z 17006KT 20/15 A2996 RMK A01 T01990146  RH  071%=      5-min Rain = 0
KTA1 070154Z 17007KT 20/15 A2996 RMK A01 T01990145  RH  071%=      5-min Rain = 0
KTA1 070155Z 17007KT 20/15 A2996 RMK A01 T01990145  RH  071%=      5-min Rain = 0
KTA1 070156Z 16006KT 20/15 A2996 RMK A01 T01980145  RH  071%=      5-min Rain = 0
KTA1 070157Z 17006KT 20/15 A2996 RMK A01 T01980145  RH  072%=      5-min Rain = 0
KTA1 070158Z 17006KT 20/15 A2996 RMK A01 T01980145  RH  072%=      5-min Rain = 0
KTA1 070159Z 17006KT 20/14 A2996 RMK A01 T01970144  RH  071%=      5-min Rain = 0
KTA1 070200Z 17006KT 20/14 A2996 RMK A01 T01970144  RH  072%=      5-min Rain = 0
KTA1 070201Z 17006KT 20/14 A2996 RMK A01 T01970144  RH  071%=      5-min Rain = 0
KTA1 070202Z 17006KT 20/14 A2996 RMK A01 T01970144  RH  071%=      5-min Rain = 0
KTA1 070203Z 17006KT 20/14 A2997 RMK A01 T01970143  RH  071%=      5-min Rain = 0
KTA1 070204Z 17006KT 20/14 A2997 RMK A01 T01960142  RH  071%=      5-min Rain = 0
KTA1 070205Z 17006KT 20/14 A2997 RMK A01 T01960142  RH  071%=      5-min Rain = 0
KTA1 070206Z 17006KT 20/14 A2997 RMK A01 T01960142  RH  071%=      5-min Rain = 0
KTA1 070207Z 17007KT 20/14 A2997 RMK A01 T01960142  RH  071%=      5-min Rain = 0
KTA1 070208Z 17006KT 20/14 A2997 RMK A01 T01950141  RH  071%=      5-min Rain = 0
KTA1 070209Z 17006KT 20/14 A2997 RMK A01 T01950140  RH  070%=      5-min Rain = 0
KTA1 070210Z 17006KT 20/14 A2997 RMK A01 T01950140  RH  070%=      5-min Rain = 0
KTA1 070211Z 17006KT 20/14 A2997 RMK A01 T01950140  RH  070%=      5-min Rain = 0
KTA1 070212Z 17006KT 20/14 A2997 RMK A01 T01950139  RH  070%=      5-min Rain = 0
KTA1 070213Z 18006KT 20/14 A2997 RMK A01 T01950138  RH  070%=      5-min Rain = 0
KTA1 070214Z 17006KT 20/14 A2997 RMK A01 T01950138  RH  069%=      5-min Rain = 0
KTA1 070215Z 17005KT 20/14 A2997 RMK A01 T01950138  RH  070%=      5-min Rain = 0
KTA1 070216Z 17005KT 19/14 A2997 RMK A01 T01940138  RH  070%=      5-min Rain = 0
KTA1 070217Z 17006KT 19/14 A2997 RMK A01 T01940137  RH  070%=      5-min Rain = 0
KTA1 070218Z 17005KT 19/14 A2997 RMK A01 T01930137  RH  070%=      5-min Rain = 0
KTA1 070219Z 17005KT 19/14 A2997 RMK A01 T01930137  RH  070%=      5-min Rain = 0
KTA1 070220Z 17005KT 19/14 A2997 RMK A01 T01930137  RH  070%=      5-min Rain = 0
KTA1 070221Z 17006KT 19/14 A2997 RMK A01 T01920136  RH  070%=      5-min Rain = 0
KTA1 070222Z 16006KT 19/14 A2997 RMK A01 T01920136  RH  070%=      5-min Rain = 0
KTA1 070223Z 16006KT 19/14 A2997 RMK A01 T01920136  RH  070%=      5-min Rain = 0
KTA1 070224Z 17006KT 19/14 A2997 RMK A01 T01920136  RH  070%=      5-min Rain = 0
KTA1 070225Z 16006KT 19/14 A2998 RMK A01 T01910135  RH  070%=      5-min Rain = 0
KTA1 070226Z 17006KT 19/14 A2998 RMK A01 T01910135  RH  070%=      5-min Rain = 0
KTA1 070227Z 16006KT 19/14 A2998 RMK A01 T01910135  RH  070%=      5-min Rain = 0
KTA1 070228Z 17006KT 19/13 A2998 RMK A01 T01910134  RH  069%=      5-min Rain = 0
KTA1 070229Z 17006KT 19/13 A2998 RMK A01 T01910134  RH  069%=      5-min Rain = 0
KTA1 070230Z 17006KT 19/13 A2998 RMK A01 T01910134  RH  069%=      5-min Rain = 0
KTA1 070231Z 17006KT 19/13 A2998 RMK A01 T01910134  RH  069%=      5-min Rain = 0
KTA1 070232Z 17006KT 19/13 A2998 RMK A01 T01910133  RH  069%=      5-min Rain = 0
KTA1 070233Z 17007KT 19/13 A2998 RMK A01 T01910134  RH  069%=      5-min Rain = 0
KTA1 070234Z 17006KT 19/13 A2998 RMK A01 T01900134  RH  070%=      5-min Rain = 0
KTA1 070235Z 17006KT 19/13 A2998 RMK A01 T01900134  RH  070%=      5-min Rain = 0
KTA1 070236Z 17006KT 19/13 A2998 RMK A01 T01900134  RH  070%=      5-min Rain = 0
KTA1 070237Z 17006KT 19/13 A2998 RMK A01 T01900134  RH  070%=      5-min Rain = 0
KTA1 070238Z 17007KT 19/13 A2998 RMK A01 T01890134  RH  070%=      5-min Rain = 0
KTA1 070239Z 17007KT 19/14 A2998 RMK A01 T01890135  RH  070%=      5-min Rain = 0
KTA1 070240Z 17007KT 19/14 A2998 RMK A01 T01890135  RH  071%=      5-min Rain = 0
KTA1 070241Z 17007KT 19/14 A2998 RMK A01 T01890135  RH  071%=      5-min Rain = 0
KTA1 070242Z 17007KT 19/14 A2998 RMK A01 T01890136  RH  071%=      5-min Rain = 0
KTA1 070243Z 17007KT 19/14 A2998 RMK A01 T01890137  RH  072%=      5-min Rain = 0
KTA1 070244Z 17007KT 19/14 A2998 RMK A01 T01880137  RH  072%=      5-min Rain = 0
KTA1 070245Z 17007KT 19/14 A2998 RMK A01 T01890138  RH  073%=      5-min Rain = 0
KTA1 070246Z 17007KT 19/14 A2998 RMK A01 T01890139  RH  073%=      5-min Rain = 0
KTA1 070247Z 17008KT 19/14 A2998 RMK A01 T01890140  RH  073%=      5-min Rain = 0
KTA1 070248Z 17007KT 19/14 A2998 RMK A01 T01890140  RH  073%=      5-min Rain = 0
KTA1 070249Z 17007KT 19/14 A2998 RMK A01 T01880140  RH  074%=      5-min Rain = 0
KTA1 070250Z 17007KT 19/14 A2999 RMK A01 T01890141  RH  074%=      5-min Rain = 0
KTA1 070251Z 17007KT 19/14 A2999 RMK A01 T01890142  RH  074%=      5-min Rain = 0
KTA1 070252Z 17007KT 19/14 A2999 RMK A01 T01890142  RH  074%=      5-min Rain = 0
KTA1 070253Z 17007KT 19/14 A2999 RMK A01 T01900143  RH  074%=      5-min Rain = 0
KTA1 070254Z 16007KT 19/14 A2999 RMK A01 T01890143  RH  074%=      5-min Rain = 0
KTA1 070255Z 16007KT 19/14 A2999 RMK A01 T01890143  RH  075%=      5-min Rain = 0
KTA1 070256Z 15006KT 19/14 A2999 RMK A01 T01890144  RH  075%=      5-min Rain = 0
KTA1 070257Z 15006KT 19/14 A2999 RMK A01 T01890144  RH  075%=      5-min Rain = 0
KTA1 070258Z 16006KT 19/15 A2999 RMK A01 T01890145  RH  076%=      5-min Rain = 0
KTA1 070259Z 16006KT 19/15 A2999 RMK A01 T01890146  RH  076%=      5-min Rain = 0
KTA1 070300Z 16006KT 19/15 A2999 RMK A01 T01880146  RH  076%=      5-min Rain = 0
KTA1 070301Z 16006KT 19/15 A2999 RMK A01 T01880146  RH  077%=      5-min Rain = 0
KTA1 070302Z 16006KT 19/15 A2999 RMK A01 T01880146  RH  077%=      5-min Rain = 0
KTA1 070303Z 17006KT 19/15 A2999 RMK A01 T01880146  RH  077%=      5-min Rain = 0
KTA1 070304Z 16007KT 19/15 A2999 RMK A01 T01880146  RH  077%=      5-min Rain = 0
KTA1 070305Z 16007KT 19/15 A2999 RMK A01 T01880146  RH  077%=      5-min Rain = 0
KTA1 070306Z 16006KT 19/15 A2999 RMK A01 T01880146  RH  077%=      5-min Rain = 0
KTA1 070307Z 16007KT 19/15 A2999 RMK A01 T01880146  RH  077%=      5-min Rain = 0
KTA1 070308Z 16007KT 19/15 A2999 RMK A01 T01890147  RH  076%=      5-min Rain = 0
KTA1 070309Z 16007KT 19/15 A2999 RMK A01 T01890146  RH  076%=      5-min Rain = 0
KTA1 070310Z 16007KT 19/15 A2999 RMK A01 T01890146  RH  076%=      5-min Rain = 0
KTA1 070311Z 15006KT 19/15 A2999 RMK A01 T01890146  RH  076%=      5-min Rain = 0
KTA1 070312Z 14007KT 19/15 A2999 RMK A01 T01890147  RH  076%=      5-min Rain = 0
KTA1 070313Z 15007KT 19/15 A2999 RMK A01 T01870147  RH  077%=      5-min Rain = 0
KTA1 070314Z 15006KT 19/15 A2999 RMK A01 T01860147  RH  078%=      5-min Rain = 0
KTA1 070315Z 16006KT 19/15 A2999 RMK A01 T01850148  RH  079%=      5-min Rain = 0
KTA1 070316Z 16006KT 18/15 A2999 RMK A01 T01840147  RH  079%=      5-min Rain = 0
KTA1 070317Z 17006KT 18/15 A2999 RMK A01 T01840147  RH  079%=      5-min Rain = 0
KTA1 070318Z 17006KT 19/15 A2999 RMK A01 T01850147  RH  078%=      5-min Rain = 0
KTA1 070319Z 17006KT 19/15 A2999 RMK A01 T01860147  RH  078%=      5-min Rain = 0
KTA1 070320Z 17006KT 19/15 A2999 RMK A01 T01870147  RH  078%=      5-min Rain = 0
KTA1 070321Z 17008KT 19/15 A2999 RMK A01 T01880148  RH  077%=      5-min Rain = 0
KTA1 070322Z 17008KT 19/15 A2999 RMK A01 T01880147  RH  077%=      5-min Rain = 0
KTA1 070323Z 17007KT 19/15 A2999 RMK A01 T01900146  RH  076%=      5-min Rain = 0
KTA1 070324Z 17007KT 19/15 A2999 RMK A01 T01900146  RH  076%=      5-min Rain = 0
KTA1 070325Z 17007KT 19/15 A2999 RMK A01 T01910146  RH  076%=      5-min Rain = 0
KTA1 070326Z 17007KT 19/15 A2999 RMK A01 T01900146  RH  075%=      5-min Rain = 0
KTA1 070327Z 17006KT 19/15 A2999 RMK A01 T01900146  RH  075%=      5-min Rain = 0
KTA1 070328Z 17007KT 19/15 A2999 RMK A01 T01900145  RH  075%=      5-min Rain = 0
KTA1 070329Z 17007KT 19/15 A2999 RMK A01 T01900145  RH  075%=      5-min Rain = 0
KTA1 070330Z 17006KT 19/15 A2999 RMK A01 T01900145  RH  075%=      5-min Rain = 0
KTA1 070331Z 16006KT 19/15 A2999 RMK A01 T01900146  RH  076%=      5-min Rain = 0
KTA1 070332Z 16006KT 19/15 A2999 RMK A01 T01890146  RH  076%=      5-min Rain = 0
KTA1 070333Z 16006KT 19/15 A2999 RMK A01 T01890145  RH  076%=      5-min Rain = 0
KTA1 070334Z 16006KT 19/15 A2999 RMK A01 T01880145  RH  076%=      5-min Rain = 0
KTA1 070335Z 16006KT 19/15 A2999 RMK A01 T01880145  RH  076%=      5-min Rain = 0
KTA1 070336Z 17006KT 19/15 A30 RMK A01 T01880145  RH  076%=      5-min Rain = 0
KTA1 070337Z 16006KT 19/15 A30 RMK A01 T01870145  RH  076%=      5-min Rain = 0
KTA1 070338Z 17006KT 19/15 A30 RMK A01 T01880145  RH  076%=      5-min Rain = 0
KTA1 070339Z 17006KT 19/15 A30 RMK A01 T01880145  RH  076%=      5-min Rain = 0
KTA1 070340Z 17006KT 19/15 A2999 RMK A01 T01880145  RH  076%=      5-min Rain = 0
KTA1 070341Z 17006KT 19/15 A2999 RMK A01 T01880145  RH  076%=      5-min Rain = 0
KTA1 070342Z 17007KT 19/14 A2999 RMK A01 T01880144  RH  076%=      5-min Rain = 0
KTA1 070343Z 17007KT 19/14 A2999 RMK A01 T01880144  RH  076%=      5-min Rain = 0
KTA1 070344Z 17007KT 19/14 A2999 RMK A01 T01880144  RH  075%=      5-min Rain = 0
KTA1 070345Z 17007KT 19/14 A2999 RMK A01 T01880144  RH  075%=      5-min Rain = 0
KTA1 070346Z 17007KT 19/14 A2999 RMK A01 T01880143  RH  075%=      5-min Rain = 0
KTA1 070347Z 17007KT 19/14 A2999 RMK A01 T01880143  RH  075%=      5-min Rain = 0
KTA1 070348Z 18006KT 19/14 A2999 RMK A01 T01880143  RH  075%=      5-min Rain = 0
KTA1 070349Z 18007KT 19/14 A2999 RMK A01 T01880143  RH  075%=      5-min Rain = 0
KTA1 070350Z 18007KT 19/14 A2999 RMK A01 T01890143  RH  075%=      5-min Rain = 0
KTA1 070351Z 18008KT 19/14 A2999 RMK A01 T01890142  RH  074%=      5-min Rain = 0
KTA1 070352Z 18008KT 19/14 A2999 RMK A01 T01890142  RH  074%=      5-min Rain = 0
KTA1 070353Z 18009KT 19/14 A2999 RMK A01 T01890141  RH  074%=      5-min Rain = 0
KTA1 070354Z 19008KT 19/14 A2999 RMK A01 T01890141  RH  073%=      5-min Rain = 0
KTA1 070355Z 19008KT 19/14 A2999 RMK A01 T01900140  RH  073%=      5-min Rain = 0
KTA1 070356Z 19008KT 19/14 A2999 RMK A01 T01890140  RH  073%=      5-min Rain = 0
KTA1 070357Z 19007KT 19/14 A30 RMK A01 T01890140  RH  073%=      5-min Rain = 0
KTA1 070358Z 19007KT 19/14 A30 RMK A01 T01890140  RH  073%=      5-min Rain = 0
KTA1 070359Z 19007KT 19/14 A30 RMK A01 T01890140  RH  073%=      5-min Rain = 0
KTA1 070400Z 19008KT 19/14 A30 RMK A01 T01880140  RH  073%=      5-min Rain = 0
KTA1 070401Z 19007KT 19/14 A30 RMK A01 T01880139  RH  073%=      5-min Rain = 0
KTA1 070402Z 19008KT 19/14 A30 RMK A01 T01880139  RH  073%=      5-min Rain = 0
KTA1 070403Z 19008KT 19/14 A30 RMK A01 T01880139  RH  073%=      5-min Rain = 0
KTA1 070404Z 19009KT 19/14 A30 RMK A01 T01880139  RH  073%=      5-min Rain = 0
KTA1 070405Z 19008KT 19/14 A30 RMK A01 T01870138  RH  073%=      5-min Rain = 0
KTA1 070406Z 19009KT 19/14 A30 RMK A01 T01880138  RH  073%=      5-min Rain = 0
KTA1 070407Z 19008KT 19/14 A30 RMK A01 T01880137  RH  072%=      5-min Rain = 0
KTA1 070408Z 19009KT 19/14 A30 RMK A01 T01870137  RH  072%=      5-min Rain = 0
KTA1 070409Z 19009KT 19/14 A30 RMK A01 T01880136  RH  072%=      5-min Rain = 0
KTA1 070410Z 19008KT 19/14 A30 RMK A01 T01880135  RH  072%=      5-min Rain = 0
KTA1 070411Z 19009KT 19/14 A30 RMK A01 T01870135  RH  071%=      5-min Rain = 0
KTA1 070412Z 19009KT 19/13 A30 RMK A01 T01880134  RH  071%=      5-min Rain = 0
KTA1 070413Z 19009KT 19/13 A30 RMK A01 T01880133  RH  070%=      5-min Rain = 0
KTA1 070414Z 19009KT 19/13 A30 RMK A01 T01890132  RH  070%=      5-min Rain = 0
KTA1 070415Z 19009KT 19/13 A30 RMK A01 T01890132  RH  069%=      5-min Rain = 0
KTA1 070416Z 19009KT 19/13 A30 RMK A01 T01890131  RH  069%=      5-min Rain = 0
KTA1 070417Z 19010KT 19/13 A30 RMK A01 T01890130  RH  069%=      5-min Rain = 0
KTA1 070418Z 19009KT 19/13 A30 RMK A01 T01890130  RH  068%=      5-min Rain = 0
KTA1 070419Z 19009KT 19/13 A30 RMK A01 T01890129  RH  068%=      5-min Rain = 0
KTA1 070420Z 19009KT 19/13 A30 RMK A01 T01890128  RH  068%=      5-min Rain = 0
KTA1 070421Z 19009KT 19/13 A30 RMK A01 T01890128  RH  068%=      5-min Rain = 0
KTA1 070422Z 19009KT 19/13 A30 RMK A01 T01890128  RH  068%=      5-min Rain = 0
KTA1 070423Z 19009KT 19/13 A30 RMK A01 T01880127  RH  067%=      5-min Rain = 0
KTA1 070424Z 19009KT 19/13 A30 RMK A01 T01890127  RH  067%=      5-min Rain = 0
KTA1 070425Z 19009KT 19/13 A30 RMK A01 T01880126  RH  067%=      5-min Rain = 0
KTA1 070426Z 19009KT 19/13 A30 RMK A01 T01890126  RH  067%=      5-min Rain = 0
KTA1 070427Z 19009KT 19/13 A30 RMK A01 T01880125  RH  067%=      5-min Rain = 0
KTA1 070428Z 19009KT 19/12 A30 RMK A01 T01880124  RH  066%=      5-min Rain = 0
KTA1 070429Z 19009KT 19/12 A2999 RMK A01 T01880123  RH  066%=      5-min Rain = 0
KTA1 070430Z 19009KT 19/12 A2999 RMK A01 T01890123  RH  065%=      5-min Rain = 0
KTA1 070431Z 19009KT 19/12 A2999 RMK A01 T01890122  RH  065%=      5-min Rain = 0
KTA1 070432Z 19009KT 19/12 A2999 RMK A01 T01890121  RH  065%=      5-min Rain = 0
KTA1 070433Z 19009KT 19/12 A2999 RMK A01 T01890121  RH  065%=      5-min Rain = 0
KTA1 070434Z 19009KT 19/12 A2999 RMK A01 T01890120  RH  064%=      5-min Rain = 0
KTA1 070435Z 19008KT 19/12 A2999 RMK A01 T01890120  RH  064%=      5-min Rain = 0
KTA1 070436Z 19009KT 19/12 A2999 RMK A01 T01890119  RH  064%=      5-min Rain = 0
KTA1 070437Z 19009KT 19/12 A2999 RMK A01 T01890119  RH  064%=      5-min Rain = 0
KTA1 070438Z 19010KT 19/12 A2999 RMK A01 T01890118  RH  063%=      5-min Rain = 0
KTA1 070439Z 19009KT 19/12 A2999 RMK A01 T01890118  RH  063%=      5-min Rain = 0
KTA1 070440Z 19010KT 19/12 A2999 RMK A01 T01890117  RH  063%=      5-min Rain = 0
KTA1 070441Z 19010KT 19/12 A2999 RMK A01 T01900117  RH  063%=      5-min Rain = 0
KTA1 070442Z 19009KT 19/12 A2999 RMK A01 T01890116  RH  062%=      5-min Rain = 0
KTA1 070443Z 19009KT 19/12 A2999 RMK A01 T01890116  RH  062%=      5-min Rain = 0
KTA1 070444Z 20011KT 19/12 A2999 RMK A01 T01890116  RH  062%=      5-min Rain = 0
KTA1 070445Z 20010KT 19/12 A2999 RMK A01 T01890115  RH  062%=      5-min Rain = 0
KTA1 070446Z 20010G15KT 19/11 A2999 RMK A01 T01900114  RH  061%=      5-min Rain = 0
KTA1 070447Z 20010KT 19/11 A2999 RMK A01 T01900114  RH  061%=      5-min Rain = 0
KTA1 070448Z 20009KT 19/11 A2999 RMK A01 T01910113  RH  061%=      5-min Rain = 0
KTA1 070449Z 20008KT 19/11 A2999 RMK A01 T01910114  RH  061%=      5-min Rain = 0
KTA1 070450Z 20009KT 19/11 A2999 RMK A01 T01910114  RH  061%=      5-min Rain = 0
KTA1 070451Z 20009KT 19/11 A2999 RMK A01 T01900113  RH  061%=      5-min Rain = 0
KTA1 070452Z 20009KT 19/11 A2999 RMK A01 T01900112  RH  061%=      5-min Rain = 0
KTA1 070453Z 20009KT 19/11 A2999 RMK A01 T01900112  RH  060%=      5-min Rain = 0
KTA1 070454Z 21010KT 19/11 A2999 RMK A01 T01910112  RH  060%=      5-min Rain = 0
KTA1 070455Z 20010KT 19/11 A2999 RMK A01 T01900111  RH  060%=      5-min Rain = 0
KTA1 070456Z 20010KT 19/11 A2999 RMK A01 T01900110  RH  060%=      5-min Rain = 0
KTA1 070457Z 20009KT 19/11 A2999 RMK A01 T01910111  RH  060%=      5-min Rain = 0
KTA1 070458Z 20010KT 19/11 A2999 RMK A01 T01910111  RH  060%=      5-min Rain = 0
KTA1 070459Z 20011KT 19/11 A2999 RMK A01 T01900110  RH  060%=      5-min Rain = 0

Page generated in 0.0701 seconds.